GFSWCAN_sfc_wetblb_021.txt.gz
Wetbulb
47.90 47.99 47.78 47.68 47.50 47.06 46.42 46.83 46.44 47.20 47.14 47.04 47.46 47.59 47.29 47.37 47.22 44.76 43.03 43.61 42.33 41.01 41.93 43.14 44.50 43.53 44.01 45.19 44.02 46.03 46.33 48.88 49.64 46.20 46.51 46.25 44.99 47.69 47.51 49.20 47.58 47.88 46.71 45.92 47.63 46.24 44.47 57.31 58.67 54.52 58.31 61.63 60.25 59.38
48.14 47.67 47.79 47.84 47.67 47.13 46.32 46.53 46.07 46.87 47.80 47.06 46.82 47.00 47.20 47.13 47.01 44.49 41.65 43.86 43.42 40.45 41.24 43.06 45.35 46.66 46.23 46.76 46.72 45.13 46.63 47.08 50.76 47.51 47.77 47.96 47.64 49.00 47.94 46.49 53.15 47.54 50.52 48.85 49.81 49.13 56.07 58.43 59.01 59.61 59.95 59.95 58.75 57.76
47.35 47.75 47.52 47.82 48.07 47.12 46.40 46.35 46.27 46.91 47.00 46.74 46.35 46.89 46.80 46.85 47.18 46.49 43.44 43.18 42.66 40.41 41.14 41.02 43.60 47.01 46.92 46.61 49.30 42.78 47.11 50.12 50.72 52.73 50.02 49.25 45.53 48.08 47.92 49.56 50.48 53.00 55.17 54.53 53.28 55.48 56.71 58.19 59.82 60.44 60.26 60.29 60.66 59.50
47.05 47.13 47.37 47.44 47.37 47.07 46.67 46.38 46.22 46.76 47.42 46.68 46.56 46.81 47.32 46.77 46.80 47.16 43.68 43.61 42.45 40.29 37.04 42.96 47.26 46.26 48.14 47.88 47.05 46.89 48.20 52.02 52.49 52.94 50.12 48.71 46.14 48.21 48.40 48.16 48.96 53.06 54.47 52.85 53.99 56.32 57.33 58.99 60.02 60.77 60.32 60.47 59.96 59.69
46.98 46.96 47.21 47.65 47.47 47.20 47.14 46.51 46.04 46.15 47.07 46.56 46.65 47.26 47.31 47.31 47.18 46.55 46.19 45.46 44.94 41.69 37.55 40.34 45.39 47.12 47.88 47.40 46.78 46.65 45.25 45.98 48.93 47.85 48.58 47.19 49.86 48.62 50.29 48.55 48.55 53.31 53.00 53.03 53.40 56.43 57.63 57.45 60.15 61.29 59.90 60.30 60.32 59.24
47.14 46.92 47.18 47.57 47.36 47.03 47.08 46.33 45.94 45.87 46.56 46.84 46.96 47.19 47.24 47.07 46.99 45.25 43.65 45.43 45.56 44.08 40.32 38.26 45.34 45.08 47.48 47.81 46.29 45.40 45.33 45.38 47.32 48.15 48.39 50.46 50.78 50.44 46.89 46.80 49.36 53.23 53.59 55.13 55.19 57.67 58.89 60.53 61.25 61.85 61.25 61.21 60.51 60.15
47.32 47.11 47.42 47.37 46.86 46.60 46.43 46.19 45.90 45.83 46.14 46.72 46.95 46.95 46.95 46.98 45.81 43.26 43.18 46.46 46.14 46.55 41.86 38.80 41.38 47.27 47.42 47.42 46.81 45.99 46.58 47.69 47.60 47.48 47.05 48.55 50.62 51.03 48.34 45.40 50.37 52.13 52.87 53.71 57.07 58.61 57.40 59.04 58.86 61.29 61.07 60.25 58.87 59.59
47.10 47.12 47.46 47.37 46.90 46.36 45.95 45.86 45.90 46.04 46.39 46.83 46.75 47.16 47.75 47.75 47.18 45.49 48.37 47.98 47.83 44.54 43.85 38.10 40.80 45.21 49.84 49.31 47.94 48.54 45.80 46.76 47.63 48.14 49.01 47.94 49.18 49.91 43.63 48.51 50.97 52.60 53.31 54.31 54.89 57.74 58.43 58.58 59.46 60.04 60.30 59.35 58.54 58.14
47.58 47.15 47.27 47.61 46.91 46.36 45.79 45.58 45.97 46.15 46.40 46.32 46.35 48.00 47.59 46.40 45.58 45.96 49.44 49.88 48.02 45.00 40.45 38.95 39.35 41.57 48.14 47.77 49.16 50.23 49.08 43.94 47.93 45.47 46.52 47.68 45.47 42.60 46.54 49.25 50.73 51.76 51.61 52.43 53.48 56.35 57.86 57.81 57.94 59.52 59.43 58.21 58.39 57.50
47.45 47.40 47.52 47.42 47.07 46.44 45.76 45.63 46.01 46.18 46.01 44.63 45.51 44.61 44.40 46.23 47.22 49.28 47.14 43.63 43.51 45.01 42.85 39.29 42.11 41.56 45.52 47.53 46.61 46.45 47.54 47.03 43.50 46.12 47.65 44.81 43.74 48.76 49.80 50.45 51.44 51.94 51.93 53.52 52.57 53.87 55.62 56.45 57.70 58.69 59.44 59.87 59.38 58.09
47.52 47.42 47.51 47.31 47.19 46.37 45.45 45.34 45.85 45.44 42.66 41.69 40.36 42.63 43.48 45.53 47.34 44.39 41.11 40.40 41.48 38.26 42.54 42.97 42.17 41.74 47.77 45.07 45.33 46.44 45.40 46.47 41.45 44.57 43.59 42.79 43.08 47.37 49.88 50.74 51.69 52.32 52.67 52.41 53.96 54.98 55.32 54.54 54.84 58.13 59.32 59.33 59.21 58.64
47.96 47.72 47.33 47.12 47.40 46.21 44.93 45.07 45.32 43.06 42.16 41.72 41.49 43.45 43.23 44.13 42.01 38.83 38.33 41.11 40.02 39.37 44.61 43.96 46.39 44.99 47.55 48.04 46.40 46.43 43.90 44.78 39.35 47.70 43.61 40.23 46.11 48.62 49.40 49.49 50.65 51.67 52.44 52.68 54.74 54.84 55.73 55.73 55.28 57.10 60.03 60.19 60.19 59.70
48.11 47.62 47.16 47.09 46.76 45.73 44.80 44.78 44.96 45.09 43.18 43.55 41.12 40.03 41.04 39.65 34.52 34.51 34.27 38.07 39.41 44.80 46.74 46.80 43.98 47.17 48.25 48.40 46.11 45.23 40.98 41.08 47.41 42.83 41.49 45.20 47.78 48.81 48.36 49.48 50.40 51.87 52.40 53.27 53.98 55.57 55.89 56.16 56.17 57.39 59.08 60.39 60.39 59.03
48.06 47.70 47.21 47.28 46.43 45.56 44.85 44.70 44.72 44.60 42.20 39.90 37.76 31.98 36.30 34.12 36.61 38.29 40.84 41.25 44.56 45.42 44.96 43.73 44.97 45.24 46.87 45.95 46.46 41.11 44.93 44.98 39.89 37.97 39.27 44.60 47.05 47.60 48.27 49.86 50.30 51.12 52.00 52.55 53.64 54.92 55.48 56.27 55.66 57.76 58.86 60.03 59.75 58.57
47.80 47.53 47.23 46.77 46.22 45.63 44.87 44.73 44.68 44.15 41.04 38.62 39.18 32.29 35.78 40.29 40.31 40.83 42.85 42.17 44.58 46.50 45.69 45.40 45.08 46.04 45.66 43.20 45.27 43.70 40.48 37.85 36.40 36.09 41.54 46.89 47.12 48.51 49.27 49.83 50.21 50.27 52.11 51.99 52.60 54.51 54.66 55.42 57.48 57.45 59.07 59.13 58.14 57.76
47.52 46.87 45.56 46.38 46.36 45.75 45.23 43.98 43.04 42.69 41.01 39.45 38.46 37.03 40.07 38.53 38.55 41.30 42.19 43.31 47.48 46.56 45.60 46.57 42.84 40.41 39.79 41.19 39.34 39.14 38.30 35.72 38.62 42.86 46.65 46.79 46.30 46.71 47.24 48.52 50.07 51.74 51.93 51.39 53.00 55.09 55.69 55.60 55.46 55.46 56.54 57.18 56.69 56.66
45.05 42.56 45.67 46.40 46.24 45.77 45.17 42.26 41.97 38.61 38.82 38.11 38.48 40.77 39.31 39.46 39.62 41.77 45.77 45.30 47.41 46.28 42.44 43.08 37.74 37.67 43.11 38.69 38.41 43.09 39.44 41.38 44.49 45.14 46.18 45.50 45.81 46.94 48.60 49.86 51.02 51.35 52.35 52.68 52.39 52.54 52.65 53.80 54.17 53.46 52.33 53.96 55.13 56.32
42.12 43.83 45.74 46.31 45.22 43.34 42.78 41.84 39.44 39.23 36.91 39.10 36.17 38.72 43.28 44.84 44.37 45.46 46.54 47.12 46.18 45.12 44.44 41.66 44.21 39.57 37.99 36.00 39.60 43.47 43.42 44.44 46.31 46.59 46.21 48.07 49.37 50.22 50.97 49.93 50.98 51.80 51.96 52.02 52.67 53.26 53.81 52.67 51.27 51.52 52.59 53.75 54.05 53.92
43.56 46.28 46.80 45.20 43.75 42.79 40.48 40.38 40.76 36.31 38.21 39.52 41.96 42.11 43.91 44.73 45.59 46.25 46.77 48.10 47.27 47.64 45.20 42.79 40.12 38.76 40.25 44.00 43.85 44.88 45.39 45.57 45.59 45.77 47.19 49.46 50.19 49.76 49.99 50.29 50.51 50.85 51.92 52.54 52.84 52.48 52.76 53.45 53.16 53.24 53.15 52.77 51.91 52.30
46.34 45.81 45.40 44.93 43.76 41.41 38.55 38.89 41.95 37.84 37.74 40.03 43.14 42.22 43.39 43.91 44.35 45.53 45.42 45.52 44.04 45.34 42.55 40.74 41.43 44.31 44.41 44.93 45.39 45.67 46.10 46.69 46.23 45.29 47.03 48.42 49.81 49.66 49.58 49.92 50.05 50.60 50.95 51.50 51.65 49.56 51.73 51.40 52.18 52.29 52.64 52.10 51.55 51.21
42.20 43.71 44.19 42.64 42.81 41.64 40.29 38.42 37.96 39.92 40.68 41.23 42.38 42.12 41.62 43.92 43.46 42.00 42.06 42.70 42.63 40.92 40.22 43.32 44.12 46.19 47.80 47.39 48.04 47.66 47.10 48.64 48.55 48.42 47.55 47.33 49.36 49.81 49.81 50.50 50.97 50.86 50.40 50.55 50.04 49.76 49.94 50.89 51.87 52.57 52.18 52.34 53.17 52.04
42.59 43.88 43.17 43.38 40.80 39.19 38.66 39.71 39.21 41.30 41.28 41.03 40.91 41.69 40.45 39.56 38.93 39.31 40.88 39.52 39.77 42.55 43.93 44.30 44.50 44.48 44.68 45.17 46.49 50.23 50.43 50.44 50.49 49.31 47.79 48.13 48.18 48.56 49.23 50.16 50.07 49.53 49.89 50.62 50.91 50.50 50.99 52.18 52.60 52.47 51.74 51.76 51.38 52.68
43.86 43.56 43.09 40.98 36.96 35.96 36.37 41.64 39.34 39.78 36.22 38.01 40.08 38.01 37.59 37.54 38.85 41.91 38.14 39.49 40.60 43.44 44.20 44.28 44.54 45.96 45.91 49.56 50.07 50.10 50.69 49.87 48.91 48.93 49.09 49.27 49.40 49.65 49.30 50.01 51.86 50.70 50.59 52.28 52.89 52.43 51.95 48.45 51.16 53.28 53.65 53.33 53.07 53.91
42.99 39.85 37.07 36.60 37.52 35.02 40.63 39.20 40.56 38.26 38.41 37.32 36.28 35.02 35.24 36.91 40.23 36.93 34.91 37.62 41.15 44.63 46.32 48.44 49.23 48.17 48.78 48.97 48.17 48.75 49.85 50.60 49.61 49.70 50.29 49.80 49.21 49.92 51.15 51.29 51.99 52.75 52.58 52.09 51.26 51.60 52.77 52.96 48.64 52.20 52.46 51.90 51.30 49.60
34.16 34.48 36.64 32.06 39.23 36.54 35.12 35.83 35.80 35.65 34.43 37.00 35.56 35.09 36.67 40.18 34.91 33.69 34.07 39.46 42.04 43.34 46.66 49.00 49.12 48.74 47.23 47.66 48.56 48.94 50.26 50.86 49.19 48.76 50.93 52.17 50.72 49.58 49.52 49.87 49.81 52.13 54.47 53.60 52.09 53.25 51.46 51.27 51.25 52.91 53.76 53.57 52.12 49.61
32.28 37.78 35.99 35.97 35.74 34.53 35.46 33.54 33.16 35.38 37.31 36.57 37.02 39.73 40.88 38.57 34.73 32.45 37.99 41.31 41.92 42.83 44.42 46.79 48.08 47.53 47.26 48.56 48.36 48.63 49.43 51.65 50.85 48.83 49.23 50.48 50.31 49.19 49.95 47.97 47.88 49.18 51.64 49.07 47.00 47.84 47.28 49.43 49.71 49.76 49.65 48.55 43.39 49.14
33.15 34.80 38.65 41.00 39.36 37.83 35.65 37.11 37.99 37.42 38.19 37.12 38.29 38.39 37.79 35.32 33.34 39.03 43.02 44.57 43.93 45.29 46.32 47.93 49.35 48.88 47.78 48.59 49.30 48.29 50.49 51.21 50.73 49.89 48.95 49.23 49.70 50.80 51.89 50.44 49.71 51.41 52.29 51.07 51.01 50.47 49.40 49.22 49.06 49.10 48.95 49.32 49.41 49.39
35.97 35.14 33.54 37.42 37.07 38.30 37.34 38.99 39.26 39.21 40.28 42.18 41.33 37.30 36.65 37.75 39.26 44.85 46.12 47.64 47.39 47.70 49.51 50.62 51.36 51.30 49.28 47.54 46.79 46.27 46.10 46.63 47.59 50.64 51.78 51.17 51.02 50.67 50.97 50.78 50.22 40.08 52.05 52.15 51.90 51.58 51.37 50.73 49.95 49.84 49.76 49.28 49.09 49.54
35.98 38.43 38.19 37.90 39.62 40.14 41.23 41.55 41.76 43.71 44.95 43.46 40.17 39.02 40.92 44.08 46.09 46.53 47.04 48.02 49.15 50.82 50.09 49.01 47.56 48.92 48.39 48.71 49.07 49.54 51.10 51.50 49.71 47.56 46.91 47.03 48.18 48.60 49.92 50.33 50.11 50.52 50.41 48.63 38.65 45.42 50.51 50.69 50.73 50.33 49.54 48.90 48.42 47.33
40.43 41.24 39.54 41.16 40.32 40.24 42.71 45.19 44.58 46.05 46.44 46.46 46.24 45.49 45.93 46.59 47.29 48.37 47.81 48.16 49.76 49.48 49.20 48.76 48.75 49.23 48.44 48.14 47.68 48.35 49.42 50.11 50.35 49.05 47.11 46.82 47.92 50.37 50.68 49.74 49.65 49.34 49.77 50.55 49.50 48.25 41.78 47.77 45.56 48.95 47.60 47.53 47.25 46.15
44.10 44.11 42.97 42.54 41.32 43.82 45.73 47.40 48.02 48.13 47.68 46.61 47.28 45.63 44.89 46.36 47.92 48.33 47.71 47.99 48.28 48.54 49.05 48.78 49.25 49.91 49.32 48.89 49.23 48.72 48.11 49.90 50.21 50.17 50.63 51.02 51.53 51.78 51.51 51.49 51.22 50.75 51.43 50.87 50.50 49.54 48.95 48.36 48.07 47.02 46.08 45.20 44.10 43.32
45.24 43.91 42.99 41.31 42.65 46.59 48.28 46.36 46.11 45.82 46.24 45.85 45.15 46.78 46.62 46.05 44.31 48.54 50.63 49.64 49.67 49.25 45.46 48.89 49.35 48.67 50.05 50.42 50.68 49.80 43.12 50.52 50.77 51.06 51.39 51.57 51.68 52.14 52.47 52.52 52.54 52.13 51.01 49.88 49.35 48.91 48.25 47.17 46.24 45.13 44.07 43.07 42.63 42.12
45.29 45.43 45.57 44.27 44.00 44.60 46.24 46.36 45.18 44.55 45.44 44.63 45.09 46.45 46.78 46.61 44.53 49.81 52.45 52.14 51.24 50.85 50.26 50.27 50.63 50.86 50.89 50.69 50.53 49.33 46.27 49.89 43.33 37.41 38.26 39.30 40.98 45.77 51.63 52.21 51.60 50.99 49.85 49.08 48.14 47.65 46.24 45.27 44.44 43.55 42.64 41.91 41.25 40.71

GFSWCAN_sfc_wetblb_024.txt.gz
Wetbulb
47.98 47.99 48.21 47.75 47.79 47.66 47.35 46.56 46.96 46.77 47.77 47.41 47.52 47.57 47.81 47.96 47.63 47.52 48.61 50.11 46.77 45.58 46.91 47.13 48.65 47.79 48.40 49.29 46.51 50.69 48.67 50.63 50.35 48.05 48.34 48.92 48.46 51.27 50.10 51.38 50.40 49.34 48.31 47.52 48.90 47.22 45.49 61.15 61.06 57.08 62.25 65.85 64.50 64.20
48.14 48.09 47.85 48.00 48.28 48.18 47.42 46.44 46.60 46.61 47.40 46.93 46.90 47.30 47.28 47.26 47.73 48.03 47.43 50.57 48.89 44.47 46.11 48.61 49.30 50.24 49.59 50.62 50.25 51.01 50.05 51.48 53.31 50.07 52.11 52.75 50.36 52.48 51.22 47.20 56.52 49.74 53.41 50.91 50.81 50.73 61.30 62.11 63.36 64.64 63.94 62.92 64.66 63.21
48.19 47.73 47.79 47.60 47.74 47.99 47.16 46.68 46.59 46.75 47.51 47.30 46.55 47.38 47.33 47.03 47.23 47.62 47.27 49.16 48.52 46.31 47.59 47.93 48.42 51.58 52.17 50.46 52.89 48.58 52.38 54.06 54.94 55.74 53.87 53.25 50.05 53.73 49.24 50.13 53.97 56.64 59.06 53.96 55.03 57.83 59.82 61.74 63.53 64.47 64.66 63.59 62.90 62.89
48.07 47.39 47.35 47.53 47.55 47.52 47.37 47.25 46.74 46.57 46.70 47.37 46.64 47.00 47.00 47.14 47.02 47.05 46.63 50.62 48.07 47.04 43.46 48.11 52.22 50.83 52.89 52.88 50.92 51.29 51.44 57.08 55.79 55.53 53.69 52.39 50.43 53.91 53.08 53.47 53.50 56.91 58.84 56.39 56.54 59.62 60.91 61.62 62.48 63.63 64.01 63.36 62.46 62.38
47.51 47.43 47.17 47.40 47.56 47.93 47.64 47.57 46.89 46.43 46.43 46.81 46.83 46.80 47.17 47.28 47.53 48.11 49.52 51.06 50.64 45.95 44.15 48.16 51.53 52.00 52.85 52.54 51.00 50.84 49.79 50.22 51.53 50.85 51.32 50.25 54.35 53.25 54.89 54.15 53.20 58.00 56.18 54.43 54.48 59.95 60.84 61.62 63.60 63.86 63.31 63.74 62.56 62.43
47.44 47.40 46.97 47.22 47.46 47.71 47.25 47.14 46.59 46.27 46.27 46.43 46.84 47.17 47.29 47.41 47.10 49.10 47.40 51.31 52.05 50.82 45.54 45.91 51.14 50.79 53.26 53.33 52.79 51.35 50.80 49.49 49.70 50.78 52.23 54.03 53.57 52.72 50.65 50.12 54.73 56.49 56.07 57.51 57.51 60.79 61.85 62.89 63.65 64.42 63.87 63.77 63.85 63.81
46.85 47.22 47.40 47.20 47.34 47.25 46.82 46.55 46.45 46.39 46.20 46.40 46.85 47.17 47.05 47.05 46.68 47.49 46.60 49.15 49.04 52.06 46.35 45.92 47.84 52.22 53.40 52.34 52.23 51.43 51.71 51.25 50.43 50.51 49.65 51.08 52.04 51.76 50.11 48.35 54.08 54.64 56.42 57.17 58.70 61.34 60.46 61.17 61.19 63.21 63.29 63.69 61.69 64.00
46.92 47.20 47.47 47.42 47.57 47.32 46.76 46.17 46.01 46.17 46.50 46.68 47.03 46.92 48.32 48.19 47.27 48.24 51.67 49.10 50.52 48.43 48.23 44.70 47.92 49.25 53.67 52.06 49.82 53.05 50.49 51.25 51.30 50.52 52.76 49.43 51.61 51.03 46.57 51.34 53.82 55.03 56.47 56.85 57.63 58.74 60.50 61.18 61.88 62.63 63.47 63.21 62.46 62.13
47.48 47.31 47.43 47.32 47.57 47.29 46.71 46.11 45.84 46.12 46.61 46.78 46.44 47.78 50.51 49.80 48.82 49.49 48.98 50.97 51.38 47.75 43.92 46.74 45.37 42.28 53.60 53.37 54.56 53.66 52.51 47.33 53.58 48.28 48.67 49.96 47.68 45.22 48.90 51.22 52.76 54.12 54.53 55.75 57.58 57.77 59.46 58.75 59.49 60.79 62.00 61.88 61.93 62.11
47.91 47.50 47.50 47.33 47.88 47.21 46.62 46.02 45.73 46.34 46.27 45.57 46.92 47.52 44.46 50.32 47.35 50.40 49.91 46.24 46.23 45.98 47.01 45.44 50.11 46.35 50.76 51.64 50.22 50.25 51.74 48.29 46.26 48.84 53.66 47.94 46.45 51.31 53.05 53.56 54.45 54.91 55.68 56.33 55.05 54.88 57.90 57.39 57.96 59.48 61.15 61.83 63.09 62.56
47.84 47.53 47.58 47.56 47.56 47.30 46.57 45.61 45.64 46.09 44.23 47.41 46.80 45.90 50.23 46.91 50.27 48.17 42.90 42.39 44.48 41.36 47.34 49.66 49.64 48.02 53.39 47.75 48.07 52.27 48.64 50.40 43.47 47.50 46.77 46.46 45.79 50.23 53.67 53.22 54.64 55.53 56.32 56.91 57.11 57.44 58.08 58.17 57.76 56.94 59.81 61.63 62.06 61.98
48.20 47.97 47.80 47.62 47.47 47.41 46.39 45.15 45.41 45.85 46.76 45.69 46.36 47.37 50.09 48.00 46.49 41.09 40.82 44.22 42.53 41.93 48.01 48.26 49.78 51.76 52.53 54.49 49.41 50.49 46.49 48.49 41.56 50.77 46.71 43.93 49.57 52.39 52.55 52.74 53.88 54.94 55.31 55.88 57.40 56.81 56.31 56.94 59.42 58.88 58.95 61.25 61.98 62.76
48.30 48.15 48.10 47.59 47.48 47.10 45.70 45.01 44.98 45.13 45.34 47.95 45.83 44.41 45.33 44.66 36.85 37.14 36.57 40.02 40.55 47.54 48.75 49.79 48.58 51.50 51.79 52.23 49.26 48.25 43.09 43.52 51.47 45.15 44.88 47.21 49.71 51.07 52.53 52.94 53.49 55.45 55.66 56.07 56.40 57.63 57.78 57.88 59.61 59.52 58.71 61.46 63.04 63.16
48.21 48.04 47.84 47.42 47.29 46.40 45.29 45.02 44.84 45.85 46.52 43.99 40.44 33.83 39.41 38.18 41.44 44.06 42.91 42.35 44.42 49.60 49.21 47.60 48.39 49.04 51.64 48.20 49.89 42.38 47.30 48.43 42.09 40.18 40.89 44.59 47.59 49.82 52.38 53.70 53.55 53.64 55.00 55.02 56.00 56.98 57.59 58.55 59.37 60.27 59.69 61.86 62.97 62.44
47.99 47.97 47.36 47.26 46.94 46.05 45.22 44.95 44.81 47.46 46.78 42.75 43.14 34.85 39.22 45.93 47.84 47.83 48.17 48.29 50.23 51.63 49.67 48.25 48.57 48.40 48.17 45.62 48.14 46.03 41.88 38.84 40.87 40.17 42.94 48.40 49.89 49.52 51.35 51.74 51.43 52.26 53.88 53.49 54.34 55.74 57.14 58.94 59.65 59.63 61.39 62.54 63.10 62.64
47.99 47.41 46.49 47.24 46.56 46.03 45.45 45.25 46.16 47.61 46.78 44.14 42.70 41.06 45.15 44.15 43.31 46.55 47.36 48.07 52.12 52.08 52.15 50.18 45.99 42.97 41.71 45.23 42.07 41.39 39.88 38.82 40.54 43.85 47.82 49.93 47.11 46.95 46.99 48.59 51.30 52.08 52.66 53.33 54.05 55.83 58.63 59.14 59.67 60.27 60.43 60.74 60.39 59.78
46.79 46.40 46.86 46.93 46.54 46.13 45.18 45.60 45.97 42.36 43.20 41.48 42.48 46.71 45.54 46.88 46.34 48.77 50.32 49.38 51.82 48.87 46.90 46.41 39.58 39.01 46.30 41.96 39.71 46.54 42.53 45.24 46.84 46.18 48.45 49.80 47.11 48.01 50.00 50.83 51.84 52.02 52.58 53.57 54.33 54.99 55.41 56.22 56.85 56.63 56.07 57.20 57.84 58.55
46.58 47.28 46.81 46.71 46.85 45.18 46.64 46.29 44.31 43.18 40.12 45.40 43.50 43.98 46.07 49.30 48.74 49.77 49.95 50.51 49.25 48.34 47.85 44.44 47.16 42.06 40.94 37.69 40.70 47.54 48.74 49.00 50.08 49.47 48.93 48.46 49.00 50.45 51.30 50.58 51.64 52.30 52.93 53.95 54.86 54.70 54.99 54.52 54.97 54.62 55.19 55.25 55.17 55.29
46.92 47.40 46.72 46.64 45.87 46.90 44.61 44.19 45.56 41.67 42.43 42.44 43.99 45.66 47.12 48.73 50.38 51.03 50.96 50.75 50.58 51.34 49.06 47.98 43.06 42.13 42.55 46.72 46.25 47.52 48.72 48.94 47.19 47.27 47.55 49.29 50.43 50.30 50.52 51.50 52.63 52.97 53.37 54.07 54.32 54.13 54.30 55.53 54.96 55.65 55.38 55.49 53.55 53.31
46.49 46.53 46.02 45.41 45.16 46.46 41.53 43.81 47.92 43.05 43.15 45.58 46.85 47.48 48.04 48.12 48.96 49.31 48.46 47.85 48.02 48.16 44.84 43.62 42.14 45.97 46.21 48.01 49.13 48.44 48.33 47.99 46.80 45.68 47.37 49.16 50.40 50.25 50.65 51.34 51.87 53.03 52.73 53.08 53.05 50.73 53.26 52.90 53.42 54.43 54.17 51.97 51.55 51.28
43.59 46.06 45.19 45.83 47.30 46.78 44.83 44.36 44.02 45.82 46.72 46.13 48.19 46.51 46.17 48.97 45.90 44.99 43.38 45.71 45.66 42.55 41.28 45.90 46.46 47.43 49.96 50.25 50.22 49.74 48.03 48.67 49.01 49.17 48.02 47.76 50.13 50.56 50.44 51.31 52.03 51.93 51.35 51.23 51.04 50.65 50.26 51.09 52.28 53.23 52.58 52.05 52.36 52.92
47.16 44.25 48.40 47.24 45.11 43.91 44.39 47.07 44.87 47.39 45.42 46.33 46.16 46.03 44.54 41.73 40.11 40.63 41.95 40.88 42.00 44.90 47.08 46.19 45.70 45.50 45.28 45.46 46.63 50.31 51.12 50.68 50.76 49.90 48.16 48.49 48.79 49.35 50.04 50.62 51.53 51.19 51.23 51.64 51.73 51.13 51.47 52.70 54.52 54.59 54.00 53.57 52.97 53.66
44.68 46.55 47.57 45.80 40.86 40.23 40.09 48.39 42.40 43.94 39.77 41.63 42.77 38.88 38.94 38.89 39.62 42.51 38.95 40.46 41.65 44.86 45.44 45.09 45.42 46.61 46.03 49.99 50.85 50.90 51.02 50.18 49.35 49.35 49.46 49.80 52.12 51.65 52.81 52.98 54.01 52.50 51.71 52.33 54.04 52.74 52.07 48.52 50.67 53.43 53.98 54.38 53.64 53.41
42.39 44.43 40.40 40.58 42.29 37.88 44.47 40.53 41.94 39.64 39.70 38.42 37.18 36.18 36.55 37.67 40.66 38.20 36.20 39.08 42.60 45.36 47.65 48.92 50.02 49.03 49.39 49.36 48.59 49.35 50.26 51.06 50.34 50.88 51.77 51.01 50.41 50.99 52.75 53.16 53.85 54.91 55.31 55.44 54.34 53.66 54.47 54.85 50.96 55.90 55.48 54.80 54.23 52.51
38.34 38.04 39.87 34.09 43.01 39.15 35.64 36.75 36.87 37.04 35.72 37.56 36.29 36.58 38.02 40.34 35.67 34.66 35.77 40.67 42.79 44.13 48.32 49.24 49.24 49.01 47.76 48.21 49.16 50.20 52.46 52.05 50.92 50.45 52.08 53.78 53.86 54.12 54.43 54.75 54.93 55.08 55.91 53.54 53.01 55.47 56.02 56.23 55.57 54.76 53.70 52.26 51.92 51.64
34.66 39.50 37.20 38.35 38.39 36.17 36.94 34.87 34.32 36.27 38.20 37.17 38.02 40.93 42.30 39.51 35.00 32.87 38.91 42.12 43.02 44.58 47.46 48.43 48.50 47.91 48.34 49.42 49.31 49.44 51.28 54.06 51.73 49.92 52.92 54.71 52.63 52.30 52.92 51.09 50.01 50.40 53.84 56.65 54.85 53.59 53.69 54.10 54.09 54.04 53.20 50.53 44.90 50.78
34.82 36.23 39.52 41.74 40.17 38.49 36.54 38.17 39.07 38.46 38.78 37.57 39.28 40.21 41.09 36.11 33.42 39.33 44.38 45.77 46.02 47.40 49.80 51.14 50.28 49.76 49.67 48.98 50.55 52.60 52.79 52.45 51.87 49.93 52.27 56.11 56.25 56.34 55.06 51.90 51.20 51.89 53.03 52.82 53.09 52.08 51.07 50.80 50.78 50.95 51.09 51.91 52.03 52.06
37.47 36.46 33.97 38.06 38.03 39.74 38.48 39.90 40.31 40.02 40.43 42.75 42.84 38.66 38.64 38.22 38.79 44.61 46.41 48.21 50.68 51.99 52.25 51.71 52.09 51.72 51.90 52.83 52.30 48.20 51.24 55.16 55.49 55.99 55.51 55.11 55.26 54.87 55.09 54.64 54.43 41.38 52.92 52.62 53.23 53.32 53.02 52.64 52.16 52.03 51.80 51.53 52.07 52.97
38.19 39.78 40.14 41.19 42.19 42.37 42.96 42.30 42.31 43.77 45.92 45.21 41.76 41.14 43.11 47.24 49.72 50.02 51.65 52.62 53.77 52.29 51.31 50.66 49.70 50.43 49.90 51.27 53.76 54.48 53.95 53.43 52.06 50.25 49.18 48.59 49.15 50.66 53.32 53.32 53.66 53.79 53.62 52.99 39.30 45.85 52.75 53.33 53.56 53.22 52.83 52.81 52.49 52.51
42.18 42.55 42.52 43.09 42.17 40.97 44.69 46.36 45.93 48.51 49.24 48.27 47.84 47.21 47.12 47.91 49.77 52.09 52.03 52.04 50.54 49.72 50.71 51.53 51.62 50.69 49.62 49.84 50.30 51.25 52.88 53.15 52.66 51.05 49.20 48.94 50.04 52.40 53.12 53.29 53.26 53.55 54.12 53.68 52.65 51.67 41.69 50.34 47.99 52.47 51.80 52.05 51.83 51.00
47.37 46.28 44.67 44.18 42.67 45.86 48.05 50.11 50.80 50.48 49.90 48.98 49.45 47.34 46.75 48.41 50.68 52.83 53.56 54.20 53.14 52.94 51.76 50.75 50.91 51.59 51.18 50.92 50.58 50.19 49.93 52.93 53.69 53.47 53.49 53.72 54.05 54.20 54.40 54.68 54.90 55.42 55.50 55.83 55.55 54.32 53.26 53.22 52.95 51.66 50.77 49.92 48.27 48.96
46.19 44.64 44.39 42.57 44.34 48.43 49.87 48.30 48.02 47.24 47.73 47.11 46.80 48.56 48.61 47.65 46.15 49.51 52.90 53.27 51.81 50.72 46.32 50.79 51.08 51.16 53.29 53.39 53.69 53.44 47.19 53.83 54.16 54.47 54.21 54.38 54.57 55.03 55.47 55.53 55.52 55.29 54.74 54.05 53.81 53.21 52.13 51.59 51.73 50.39 49.41 47.75 47.49 46.54
46.32 46.19 46.03 45.41 45.59 45.79 48.07 47.53 46.56 45.88 46.50 45.94 47.27 48.67 49.13 48.71 45.60 50.41 54.45 55.68 54.05 52.80 52.28 52.57 53.04 53.72 54.57 54.00 53.68 52.72 50.23 53.46 45.60 38.00 39.98 40.11 40.36 46.28 54.66 55.08 54.78 54.63 53.33 53.26 52.78 51.83 50.35 48.95 49.54 47.77 46.89 45.92 45.47 45.05

GFSWCAN_sfc_wetblb_030.txt.gz
Wetbulb
51.00 50.23 49.68 48.73 49.16 48.68 48.42 48.75 48.50 47.71 47.58 48.47 48.98 48.27 48.92 49.16 49.05 48.84 51.88 54.97 49.67 47.41 50.26 51.28 51.08 50.46 52.14 52.03 49.88 53.15 53.11 53.00 51.95 47.70 47.31 48.12 47.87 50.16 50.39 53.62 52.40 50.80 49.29 47.93 49.91 47.01 44.30 57.77 56.19 54.70 64.71 66.65 66.69 66.14
51.12 50.69 49.94 48.81 48.88 48.55 48.73 48.77 48.31 47.67 47.58 47.88 48.85 48.36 48.24 48.38 48.72 48.83 50.80 54.92 54.57 48.52 48.32 51.96 51.59 52.18 52.80 52.98 51.49 53.75 52.90 53.31 54.63 50.05 50.78 49.98 48.38 50.78 53.62 47.04 56.20 50.27 54.13 51.75 52.83 51.78 63.00 66.60 65.45 66.85 67.44 67.14 66.61 66.22
51.21 51.08 50.01 48.91 48.53 48.43 48.23 48.24 47.91 47.92 47.98 47.58 47.68 48.22 48.00 48.14 48.39 48.03 48.98 52.97 53.08 49.75 50.50 51.12 50.08 53.55 52.63 52.33 54.13 49.53 53.76 56.80 56.73 59.02 54.81 53.95 50.60 52.36 49.29 50.46 53.51 55.93 59.28 55.27 56.13 59.69 61.81 63.75 65.63 66.77 67.29 66.84 67.21 67.31
51.01 50.75 50.02 49.13 48.47 48.23 48.03 48.22 48.29 48.37 48.05 47.77 47.51 47.66 48.08 48.24 48.36 48.42 48.48 52.76 52.50 50.65 46.04 50.08 57.01 53.87 56.35 55.79 53.49 52.51 54.00 57.02 58.01 57.22 53.36 52.72 51.86 56.15 52.96 53.88 52.86 55.48 58.28 56.91 57.66 60.92 61.99 63.48 65.23 66.05 66.27 66.68 66.45 67.26
50.66 50.38 49.82 49.07 48.27 48.14 48.14 48.30 48.62 48.38 48.07 47.68 47.41 47.69 48.00 48.15 48.51 48.66 51.02 53.75 55.40 49.67 46.66 49.44 54.72 55.35 55.69 54.96 53.96 52.35 52.89 54.07 53.52 50.74 49.72 49.16 52.31 52.63 54.51 54.35 52.51 57.89 55.92 53.99 55.73 60.65 61.72 61.34 64.76 65.69 65.50 65.43 66.14 65.83
49.93 49.21 48.71 48.81 48.39 48.03 47.77 47.90 48.34 47.81 47.71 47.42 47.34 47.47 47.73 48.15 48.27 49.18 50.59 55.11 55.92 54.67 48.17 46.97 55.40 54.71 55.38 54.95 53.24 51.87 52.48 53.50 52.57 51.46 51.27 52.60 55.83 54.51 49.94 49.57 56.42 58.77 60.44 58.18 57.47 59.47 63.10 64.98 65.14 65.64 65.38 65.74 66.01 66.41
49.50 48.67 48.34 48.27 48.24 47.76 47.67 48.08 47.57 47.54 47.21 47.20 47.32 47.52 47.81 48.03 47.72 47.76 46.48 51.15 49.71 53.87 48.98 47.68 48.64 53.79 55.92 54.52 52.82 51.59 53.58 52.45 51.78 50.72 49.99 51.43 52.97 53.29 49.70 47.41 55.74 58.20 59.11 59.64 61.36 61.42 61.14 61.95 61.99 64.19 64.50 65.37 64.17 66.28
49.07 48.83 48.25 48.06 48.15 47.85 47.89 47.88 47.60 47.30 46.82 46.90 47.17 48.01 48.28 48.06 48.67 48.28 52.84 50.28 50.38 50.77 51.18 46.64 48.26 50.97 55.83 51.20 49.56 54.14 51.74 52.47 52.00 50.68 51.36 49.89 51.89 52.49 48.05 52.60 54.27 56.87 57.80 57.30 59.18 60.89 60.45 62.05 62.53 62.28 63.89 64.26 63.73 63.78
48.48 48.77 48.45 47.74 47.77 47.91 47.94 48.06 47.54 47.15 46.83 46.84 47.39 47.23 48.92 49.58 49.39 52.35 52.53 51.54 54.12 50.68 46.58 47.68 45.35 44.18 54.58 52.21 53.76 52.93 53.03 47.88 52.95 49.43 49.28 50.73 48.94 47.18 51.28 53.23 53.55 56.30 55.93 56.14 57.72 58.74 59.36 59.51 61.04 61.60 61.16 62.15 61.77 62.73
47.98 48.29 48.42 48.16 47.65 48.20 47.96 48.19 47.54 47.30 47.16 46.78 46.32 47.57 45.49 50.39 53.38 52.18 50.66 49.12 48.31 49.77 49.98 46.41 50.91 45.65 52.66 51.43 49.94 49.96 51.31 47.80 46.66 49.20 52.21 48.67 47.46 53.36 53.37 54.89 56.56 57.23 56.48 55.99 54.21 54.44 56.74 58.08 59.56 59.93 57.03 58.62 62.47 63.67
48.59 48.01 48.42 47.81 47.96 48.13 48.05 48.07 47.59 46.99 46.64 46.81 46.76 47.29 52.68 52.22 51.68 49.16 44.73 43.40 46.62 44.85 48.45 47.97 49.02 48.91 53.48 48.04 47.59 52.23 49.67 49.36 44.48 47.95 47.18 47.15 46.04 51.48 56.06 56.61 57.41 56.78 56.22 56.22 56.73 57.10 57.60 57.60 58.67 59.08 57.56 58.44 62.37 63.32
48.93 48.48 48.34 48.21 48.41 48.05 48.36 47.99 47.39 45.46 49.19 46.44 45.16 50.47 51.98 48.19 46.78 42.79 41.98 45.66 45.11 43.85 49.53 47.77 49.41 51.00 52.50 54.88 51.38 48.54 47.29 48.19 43.35 51.95 46.43 44.19 50.98 54.62 55.47 55.13 56.29 56.57 56.50 56.04 57.18 56.61 57.13 57.77 58.36 59.76 59.08 58.57 61.10 62.95
48.93 48.43 48.27 48.52 48.43 48.32 48.26 47.79 46.65 46.10 46.82 50.73 48.21 45.73 45.10 45.89 36.41 38.10 38.09 42.05 43.76 49.27 51.22 49.89 49.13 50.93 52.50 53.11 50.60 49.00 44.58 44.51 50.81 46.83 44.68 49.44 53.02 54.32 54.90 54.74 54.71 55.89 55.85 55.79 55.52 56.89 57.63 57.44 58.46 58.63 58.82 60.09 60.54 62.76
48.43 48.16 48.16 48.37 48.63 48.23 48.08 47.00 45.99 46.37 46.88 45.78 43.04 34.77 40.76 39.84 42.62 44.17 44.33 46.52 49.42 50.91 49.69 50.23 49.09 48.72 49.88 49.81 49.36 44.55 48.04 49.01 43.72 40.91 43.21 50.61 52.30 52.70 53.70 54.04 53.39 53.82 54.88 55.20 55.17 55.24 55.81 56.92 57.22 58.85 59.43 61.19 60.55 60.81
47.96 48.21 48.31 48.30 48.28 48.26 47.29 46.10 45.67 47.55 46.40 43.70 44.18 35.80 40.15 46.26 48.75 48.61 50.32 49.25 50.60 51.59 51.03 49.08 49.24 49.21 49.08 46.16 47.36 46.35 43.88 41.63 44.10 43.61 48.64 51.27 53.02 53.19 53.10 53.22 53.42 52.82 53.49 53.49 54.57 54.64 55.71 56.60 57.33 57.72 59.72 59.05 61.91 61.82
48.17 47.94 47.18 48.56 48.18 47.35 46.54 45.79 46.76 49.05 48.10 45.23 45.17 43.32 46.68 45.76 46.39 47.64 48.06 50.01 52.14 51.18 51.49 50.74 47.32 45.30 44.61 45.45 43.55 42.93 42.30 41.22 46.18 49.85 50.14 52.41 53.05 53.54 52.85 52.62 52.41 53.25 54.01 53.56 53.11 54.48 55.32 56.12 57.31 59.71 59.95 59.06 60.34 60.52
47.68 46.21 48.40 48.36 47.62 46.79 45.97 46.69 47.47 45.00 45.17 43.50 43.34 47.56 48.67 47.85 48.11 49.53 51.62 50.25 53.08 51.10 47.65 47.95 42.24 42.22 47.13 43.54 42.27 46.48 45.05 46.39 47.79 49.15 51.91 52.53 51.75 51.79 51.86 50.77 50.95 53.09 54.21 54.69 55.23 56.15 56.35 57.32 59.31 59.50 56.10 58.28 61.42 60.50
47.23 48.68 48.36 47.90 47.30 45.78 47.28 46.69 46.25 44.62 41.86 45.30 43.50 46.23 48.86 49.95 50.75 51.31 50.48 51.80 50.59 49.59 49.67 45.99 47.62 43.52 42.10 41.00 42.81 47.04 48.06 50.08 51.13 51.00 51.01 51.41 51.53 52.00 51.08 50.43 51.38 53.60 54.76 55.50 55.61 56.11 56.59 57.77 55.95 55.91 57.37 58.30 58.60 59.65
48.87 48.56 48.02 47.63 47.36 47.13 44.85 46.24 47.74 42.43 44.31 46.31 48.12 48.56 49.26 50.39 51.81 51.07 50.27 51.30 52.63 51.81 48.86 47.38 43.77 42.22 44.02 47.98 47.95 49.21 49.39 49.90 49.30 50.31 50.80 51.16 51.17 50.50 50.79 51.85 53.20 53.77 54.17 54.51 55.35 55.24 56.11 56.07 55.25 54.99 54.85 54.82 53.40 54.06
47.87 47.64 47.54 46.91 45.95 46.58 44.24 45.87 50.50 46.07 44.70 48.51 49.06 47.16 48.99 48.95 50.64 48.83 49.67 49.71 48.95 48.03 45.09 43.64 44.40 48.87 48.66 49.71 50.93 50.77 50.40 51.29 49.99 47.84 49.07 50.28 51.05 51.65 51.87 52.83 53.57 54.39 54.30 54.75 55.07 52.05 54.33 54.01 55.45 55.47 54.32 53.29 52.84 51.64
47.12 46.55 46.65 46.71 48.98 48.14 46.18 46.30 45.97 46.18 46.54 47.12 49.75 50.09 48.35 48.89 47.82 47.27 46.87 49.17 46.37 45.99 44.07 47.21 48.75 50.07 51.91 51.48 52.26 52.16 50.71 50.23 49.03 49.17 48.36 48.67 51.04 52.07 51.72 53.00 54.14 54.99 52.78 52.05 52.54 52.60 52.37 53.51 54.85 54.85 54.25 53.93 55.12 54.58
48.40 46.67 49.86 48.53 46.91 46.81 46.52 49.16 48.41 48.96 47.10 47.84 46.67 48.37 46.09 45.84 45.11 43.84 46.58 44.68 44.95 46.68 48.70 48.21 49.17 49.67 49.50 49.41 48.59 49.96 51.22 51.44 51.37 50.46 48.40 49.53 50.40 50.56 50.66 51.38 51.70 51.50 52.12 52.62 52.01 52.03 51.47 52.85 54.15 54.58 54.34 53.43 53.12 54.21
45.28 48.81 48.64 47.72 43.57 42.01 40.19 50.29 43.69 45.78 42.54 43.46 45.95 42.89 43.61 43.75 42.49 44.69 40.74 42.21 42.97 46.91 46.87 46.70 47.11 48.17 47.44 49.16 51.18 51.23 51.92 51.03 50.46 51.75 52.65 52.33 53.17 54.09 54.34 54.73 53.22 51.55 50.60 51.15 52.41 52.40 52.12 49.00 51.38 53.25 52.72 52.13 51.69 51.35
42.67 46.57 43.59 43.22 43.13 38.70 46.71 43.56 46.82 43.80 44.41 41.92 41.62 38.21 39.54 40.17 41.92 39.24 36.91 40.47 45.03 47.17 47.20 48.03 48.95 49.42 49.98 50.24 49.60 50.33 50.98 52.15 51.71 52.24 52.88 54.58 53.66 53.15 55.14 55.46 54.21 53.62 54.07 54.03 52.96 52.38 51.78 51.62 48.90 52.57 52.98 53.19 53.37 53.09
39.35 39.44 40.71 33.68 43.80 40.99 39.54 39.47 40.38 40.02 37.35 39.32 38.19 38.25 39.11 40.78 36.51 36.08 36.67 41.67 44.07 45.61 49.03 50.09 49.91 49.88 48.61 49.26 50.33 51.00 53.31 53.11 51.21 50.96 52.85 53.70 54.11 55.41 54.15 54.62 55.20 55.23 55.50 53.66 53.33 53.94 54.90 55.57 55.91 55.09 54.39 52.55 51.31 51.05
37.03 40.08 39.06 40.12 41.33 39.61 40.45 37.23 37.50 37.37 38.81 38.08 39.05 41.77 41.94 39.70 36.07 34.87 40.49 43.58 44.88 46.71 48.99 49.28 49.02 48.97 49.60 51.24 50.08 51.12 52.47 54.49 54.44 52.50 53.06 54.51 54.22 54.07 54.12 52.57 51.65 53.97 56.76 56.83 56.05 54.73 54.94 55.13 53.33 52.70 51.99 50.54 47.40 52.03
35.99 39.23 43.09 45.68 43.65 41.84 39.37 39.57 40.38 38.92 38.92 38.52 40.82 41.37 40.90 35.83 35.91 40.67 45.79 47.85 47.98 50.35 51.40 52.57 52.59 51.49 51.27 52.38 53.16 53.67 54.96 56.48 56.15 54.66 56.66 55.25 56.34 56.09 54.61 52.83 52.18 54.32 56.48 57.16 56.97 56.57 55.13 54.54 53.04 52.25 52.14 53.10 53.32 53.35
38.57 38.68 35.60 39.72 39.08 39.94 39.25 40.57 40.11 39.94 41.41 44.35 44.16 41.42 39.23 38.59 40.00 46.03 48.50 50.49 51.62 52.80 53.02 53.44 54.23 53.33 52.45 52.88 55.00 56.07 56.48 56.45 57.52 56.85 55.51 55.12 55.49 55.27 56.07 54.95 54.21 44.81 54.02 52.65 54.44 54.39 54.02 53.75 53.53 53.39 53.37 52.91 53.24 54.01
38.30 41.83 41.59 39.85 40.51 41.40 41.96 42.74 44.23 46.25 48.33 47.17 44.13 42.67 42.74 45.95 47.92 49.31 51.06 52.09 52.95 52.39 51.29 52.18 54.04 56.04 56.31 56.82 56.60 56.62 56.37 54.87 52.89 50.61 49.80 49.74 50.56 51.74 54.11 54.05 54.06 54.59 55.02 54.18 39.80 46.91 51.81 52.35 53.10 54.32 54.52 54.02 53.69 54.58
43.66 43.56 41.40 43.45 43.19 42.91 45.98 48.49 47.12 49.55 50.80 50.05 49.60 49.21 49.14 49.82 51.92 54.19 53.12 52.25 51.99 52.68 54.43 55.12 55.09 54.81 53.89 52.63 52.71 54.15 55.04 54.48 53.79 52.50 50.82 50.81 52.00 54.10 54.70 54.84 55.01 55.28 55.25 54.66 53.75 53.12 43.68 50.81 49.04 53.68 53.06 53.44 53.55 53.25
48.73 48.26 46.26 45.82 44.82 46.91 48.29 49.83 50.56 50.46 49.80 48.56 49.23 47.61 47.60 49.85 52.48 54.44 54.50 55.06 54.90 54.86 54.29 53.66 53.31 52.74 51.96 51.79 52.03 51.89 51.81 54.70 55.35 55.37 55.20 54.84 55.25 55.49 55.45 56.09 56.21 56.27 56.04 55.58 55.24 55.31 54.11 53.50 54.33 53.50 53.02 52.50 52.07 50.08
47.20 46.57 45.79 44.68 46.05 49.44 50.40 48.68 47.92 47.41 47.79 47.90 48.10 49.76 49.86 49.01 47.46 50.89 53.86 54.07 53.02 52.04 48.23 51.89 52.96 53.27 55.05 55.22 55.32 54.90 49.82 55.18 55.88 55.75 55.91 56.19 56.16 56.76 56.59 56.70 56.36 56.12 55.82 55.58 55.38 54.85 53.90 53.03 53.17 52.58 52.20 51.12 50.96 49.97
47.43 48.22 48.11 47.69 47.24 46.67 48.91 48.86 48.14 47.43 48.80 47.91 48.69 49.78 50.01 49.93 47.16 51.17 55.17 56.08 54.47 53.74 53.16 54.15 54.63 55.36 56.22 55.95 55.49 54.67 52.38 53.64 45.40 38.46 39.21 38.54 38.03 44.15 54.51 55.65 55.51 55.51 54.75 54.30 53.94 53.49 52.75 51.64 51.61 50.99 50.29 49.67 49.17 48.87

GFSWCAN_sfc_wetblb_036.txt.gz
Wetbulb
51.79 51.79 51.70 51.59 50.76 50.27 49.72 49.21 48.90 49.27 48.63 48.93 49.11 48.81 49.00 49.41 49.40 45.60 41.90 44.06 43.37 38.43 39.54 43.42 45.76 40.86 40.66 40.36 39.25 43.24 44.53 46.15 45.64 40.87 40.29 39.30 38.65 40.54 39.70 41.33 40.75 40.00 37.38 37.72 39.06 37.51 37.72 52.88 56.20 48.41 49.70 57.38 58.40 57.13
51.88 51.80 51.42 51.52 51.43 50.58 49.71 48.89 48.74 48.79 48.54 48.95 48.99 48.94 48.55 48.94 49.03 47.88 39.45 44.56 45.90 42.06 41.25 44.89 47.72 48.35 45.93 44.72 42.46 41.99 44.58 44.72 48.63 45.46 44.04 44.32 41.21 43.20 40.02 37.85 46.42 41.91 42.13 40.51 41.92 41.65 51.19 59.48 58.52 56.89 56.87 57.50 58.51 57.14
51.79 51.68 51.51 51.40 51.28 50.87 49.82 48.99 48.51 48.26 48.67 49.10 48.86 48.71 48.35 48.40 48.57 47.21 39.67 40.83 41.92 40.48 41.35 41.50 43.17 47.60 45.86 45.11 45.00 40.85 43.93 47.06 46.09 49.90 47.21 44.99 43.49 44.50 40.93 42.92 44.24 47.73 50.82 46.21 46.52 54.37 57.83 59.83 60.88 62.14 62.58 61.80 62.64 62.65
51.50 51.48 51.54 51.43 51.28 50.92 50.04 49.08 48.43 48.40 48.85 49.21 48.80 48.58 48.30 48.13 48.32 48.06 39.66 40.22 40.22 40.53 36.54 40.77 50.01 47.24 50.55 46.15 45.21 44.15 44.18 46.67 47.55 48.18 45.11 42.95 41.61 44.38 40.98 44.69 44.50 47.95 50.51 49.15 49.76 52.94 55.97 57.22 58.03 58.89 62.68 62.92 63.55 63.17
51.42 51.48 51.28 51.19 51.19 50.80 50.00 49.21 48.48 48.36 48.55 48.79 48.39 48.26 48.18 47.96 48.47 46.33 42.15 41.63 43.05 41.06 37.10 39.00 44.85 47.85 49.06 48.30 46.26 45.90 42.54 43.07 44.40 43.66 41.83 41.01 42.41 43.84 44.84 43.56 44.97 50.11 48.98 47.96 47.14 53.37 54.05 54.80 57.53 60.65 62.60 61.53 62.45 62.89
50.74 50.82 50.73 50.93 50.95 50.35 49.27 49.09 48.34 48.27 48.25 48.34 48.08 47.85 47.65 47.69 47.99 40.67 41.45 44.86 45.50 43.91 40.76 36.76 44.59 46.01 46.14 47.21 46.24 44.83 42.48 42.83 43.53 41.75 41.17 43.27 45.47 44.75 40.54 40.38 50.38 52.45 53.79 54.31 51.55 54.51 56.99 56.01 57.76 62.25 61.88 60.73 62.36 63.89
50.19 50.32 50.44 50.51 50.34 49.97 49.68 49.10 48.80 48.32 48.49 48.17 48.19 47.79 47.81 48.02 42.57 37.62 40.67 45.29 47.62 44.43 41.94 38.37 39.91 46.27 48.19 46.34 44.63 43.37 42.08 41.74 42.67 40.29 39.02 40.43 42.07 44.16 41.33 39.06 49.71 52.74 53.25 53.68 53.81 54.83 54.37 57.48 57.55 58.44 58.84 59.96 61.14 61.27
49.49 49.69 49.83 50.29 49.85 49.49 49.37 48.93 48.56 48.61 48.56 48.10 48.22 48.01 47.95 47.95 45.84 40.72 43.59 47.29 46.25 42.63 42.63 37.75 39.81 44.65 49.28 42.48 41.25 42.56 40.40 40.90 41.17 41.69 41.40 39.79 41.35 42.74 39.41 44.02 46.53 52.03 51.90 53.37 54.73 54.90 54.30 57.74 59.41 59.68 60.32 59.41 58.46 58.56
49.54 49.44 49.52 49.96 49.53 49.09 49.15 48.82 48.44 48.57 48.57 48.29 47.78 48.01 43.35 41.50 40.48 44.56 53.46 51.18 45.60 44.63 39.41 39.72 36.86 37.40 47.78 44.89 46.10 46.14 43.79 38.50 43.06 40.38 39.95 41.51 38.79 37.74 42.25 44.85 44.45 51.63 50.88 49.44 50.50 51.76 54.81 55.99 55.42 55.87 57.38 57.43 57.74 58.22
49.61 49.61 49.32 49.56 49.26 48.97 49.04 48.71 48.50 48.46 48.13 47.99 42.74 39.21 38.73 44.27 53.84 51.66 45.51 43.34 43.00 42.98 41.42 37.89 41.18 40.48 44.31 44.11 44.18 43.37 43.45 43.25 38.47 41.46 42.63 39.71 37.70 42.21 46.32 47.43 46.43 50.17 49.88 50.14 48.67 48.26 48.96 49.39 51.60 54.03 53.51 56.31 56.80 57.10
49.84 49.73 49.49 49.22 49.19 48.99 48.67 48.71 48.52 48.01 46.40 38.88 36.78 41.86 46.75 52.28 44.87 42.57 39.48 38.58 39.90 38.80 39.93 39.58 38.73 38.35 47.02 42.09 41.77 43.98 41.22 41.90 37.12 39.88 40.25 38.72 37.82 45.89 48.83 49.32 49.84 50.39 51.33 51.12 50.96 50.68 50.42 49.91 50.18 50.51 52.30 54.60 55.98 55.51
49.51 49.64 49.42 49.13 49.07 48.83 48.61 48.71 48.45 42.66 39.01 40.19 39.56 43.05 41.37 42.19 40.31 37.55 36.60 39.31 38.77 37.66 40.88 39.16 39.70 44.56 46.74 50.80 45.65 46.20 43.65 44.12 37.49 44.90 43.48 38.47 42.87 46.42 48.11 48.91 49.22 49.43 50.78 51.11 52.27 51.67 51.87 52.42 52.46 52.11 53.68 53.69 56.20 58.07
48.86 49.31 49.02 49.04 49.07 48.49 48.62 48.61 48.68 47.54 44.35 39.56 40.50 38.64 40.25 38.62 33.89 34.67 33.66 36.28 36.09 40.48 44.92 43.01 44.65 46.93 46.02 48.81 42.52 41.17 38.86 38.23 47.71 43.30 40.32 40.98 45.07 48.38 48.42 49.37 50.35 50.81 50.37 50.30 50.64 51.49 51.90 52.21 53.19 52.97 52.85 54.81 55.06 57.38
48.08 48.84 48.97 48.68 48.73 48.68 48.72 48.79 48.48 45.74 39.11 38.27 39.10 29.09 34.16 32.21 35.95 37.00 36.32 39.36 43.08 44.48 43.14 43.31 42.73 42.33 43.15 41.82 43.64 39.36 42.54 43.22 39.69 36.98 38.82 43.67 48.19 49.46 49.59 50.52 49.67 48.28 48.77 48.88 49.47 50.31 50.76 51.14 51.58 53.06 53.72 54.43 54.26 54.61
48.48 48.96 48.73 48.41 48.63 48.85 48.88 48.82 47.41 41.66 39.29 40.20 40.51 27.60 35.15 38.79 39.12 43.61 44.49 43.52 45.57 46.44 43.60 42.84 42.51 42.14 40.10 40.49 41.11 40.82 40.41 38.64 39.19 37.41 41.20 44.74 46.47 47.24 47.53 48.52 48.06 48.18 48.34 47.95 48.52 49.14 50.07 51.01 50.76 51.05 52.12 53.32 53.84 54.10
48.48 48.36 46.08 48.45 49.06 49.01 48.56 47.00 42.88 40.84 41.70 40.51 39.79 37.44 39.96 39.13 40.59 43.38 44.71 42.77 46.03 44.79 46.23 43.78 39.95 38.65 38.57 39.02 39.06 39.32 39.28 36.71 40.52 43.87 46.97 45.97 45.13 45.70 45.75 46.90 47.58 48.35 47.96 47.51 48.14 49.26 50.63 50.01 49.92 50.03 51.74 53.50 53.33 54.23
46.57 42.85 48.28 48.55 48.62 48.49 47.35 41.48 39.78 39.51 41.19 40.20 37.96 42.33 41.23 43.14 44.24 44.64 45.30 43.94 46.10 44.06 40.02 40.94 37.69 37.98 41.67 38.53 38.61 40.79 38.44 42.75 44.23 44.61 45.23 44.50 44.36 44.71 45.93 46.90 47.71 48.90 48.60 47.75 49.11 51.10 50.89 53.47 53.69 51.99 49.50 49.44 50.68 52.82
44.76 47.35 48.69 48.60 46.59 44.49 41.75 40.58 41.25 40.73 37.37 38.03 35.88 39.90 42.38 45.17 43.48 43.24 44.01 45.32 45.84 44.36 41.66 39.98 41.48 37.53 36.71 38.61 40.28 43.48 45.23 46.44 45.29 45.31 45.81 46.38 46.70 48.23 49.59 49.81 50.85 51.33 50.82 48.56 49.89 51.26 52.04 53.46 52.14 52.19 49.83 49.27 49.13 51.35
46.29 47.19 48.88 48.02 44.97 41.46 39.39 40.43 41.67 37.52 38.32 39.83 42.26 43.48 44.42 45.34 44.90 44.67 45.08 44.27 44.51 43.73 41.92 40.67 38.80 36.80 39.53 41.56 41.73 43.89 44.46 44.49 43.90 44.69 46.15 47.96 49.49 49.14 50.95 51.83 52.96 53.16 52.47 52.90 53.58 53.47 53.45 53.40 52.75 53.84 53.62 53.46 53.21 53.09
48.42 48.45 48.27 47.87 45.36 41.97 41.29 39.33 43.78 39.48 38.89 41.68 43.88 42.42 42.17 42.61 46.23 46.15 43.31 43.09 41.45 41.08 39.05 38.33 40.48 41.35 42.26 43.93 45.09 44.88 45.58 46.32 45.65 44.98 45.85 47.66 50.23 51.19 51.40 52.37 52.00 52.67 52.78 52.82 52.58 50.41 52.94 52.67 53.05 52.67 52.29 52.00 51.93 51.44
44.45 44.29 46.05 43.79 41.76 40.75 40.59 40.92 39.75 41.06 41.66 44.12 44.19 43.20 41.43 43.72 43.00 41.18 39.97 42.30 39.52 38.14 37.60 41.81 43.90 45.32 45.53 46.18 47.15 47.31 46.52 47.35 47.48 47.68 47.28 47.48 49.94 50.94 50.74 51.06 51.92 51.71 51.28 51.10 51.08 51.42 50.73 51.37 52.29 53.01 52.16 51.13 51.13 50.89
43.13 47.50 42.03 42.46 40.91 44.43 42.39 45.21 43.32 43.58 42.19 43.86 44.02 45.05 42.88 41.19 37.84 37.56 40.00 37.80 37.88 40.02 40.95 40.71 41.71 43.17 43.84 45.41 46.59 48.43 49.41 49.48 49.46 49.61 47.53 48.26 49.18 49.56 50.38 50.54 50.61 50.56 50.92 51.12 51.28 51.26 51.60 51.77 52.10 52.07 51.73 51.38 51.01 51.98
46.16 44.41 43.16 45.22 40.85 35.45 35.71 43.48 41.23 43.06 39.06 40.32 41.41 39.76 37.20 36.78 39.74 40.00 36.45 40.28 38.74 41.11 41.29 41.56 42.61 47.79 46.24 48.39 48.74 49.31 50.09 49.65 49.79 49.96 50.01 49.97 50.56 51.76 50.96 50.16 50.62 50.20 50.48 50.56 51.26 50.81 50.64 47.97 49.40 50.60 50.28 49.96 49.21 48.48
46.85 41.31 40.16 39.33 37.10 30.79 41.17 38.26 40.41 39.39 38.17 36.33 35.40 32.65 37.81 37.97 40.87 38.68 36.49 39.18 42.09 45.25 45.78 46.65 47.41 47.15 48.38 48.48 47.89 48.33 49.48 50.68 50.37 50.98 51.14 49.08 47.19 47.21 50.24 50.57 50.16 51.03 50.77 50.38 49.96 49.90 49.82 49.57 47.75 50.03 49.55 49.32 49.23 48.94
35.69 32.05 35.32 26.51 37.59 38.47 38.17 38.05 36.12 34.36 31.96 36.29 34.62 36.91 37.98 39.77 36.23 35.23 35.24 39.67 43.36 44.70 46.57 48.24 48.09 48.02 47.01 47.44 48.35 48.96 50.77 50.87 50.18 49.97 51.36 50.25 49.26 49.32 49.10 48.49 48.16 48.07 48.04 47.31 48.29 49.52 48.24 48.76 48.62 48.74 49.01 48.37 47.25 47.42
31.25 36.11 32.02 36.70 36.22 36.29 35.14 31.96 31.27 33.47 36.27 36.94 37.75 40.44 40.10 38.10 35.53 33.96 38.79 42.52 44.24 45.41 47.79 47.68 47.68 47.39 48.00 48.76 48.42 48.92 50.14 51.91 52.18 50.66 51.59 52.78 52.22 50.69 48.39 46.78 45.88 47.40 50.42 51.10 50.03 49.88 49.97 50.10 50.27 50.08 49.99 49.80 46.21 49.10
32.80 34.70 40.13 41.94 39.64 38.36 37.30 38.86 39.87 38.15 37.28 36.95 39.38 39.67 39.18 35.68 34.67 39.72 44.14 46.52 46.95 49.11 50.34 50.37 50.11 49.34 49.06 49.44 49.75 50.81 51.06 51.51 51.08 50.91 52.24 52.42 52.48 52.64 51.22 48.90 47.96 49.29 53.40 54.09 52.68 52.37 50.04 48.68 47.59 48.22 48.17 48.95 50.20 49.96
37.57 37.22 33.94 38.50 37.03 38.89 38.27 38.81 38.37 37.96 39.77 42.57 42.81 39.77 39.18 38.68 39.29 44.50 46.79 49.20 50.46 51.02 51.49 51.87 52.41 52.08 50.54 49.96 50.20 50.65 50.90 51.15 51.92 52.14 51.73 50.84 51.14 50.45 48.55 47.95 45.43 42.77 45.90 48.00 49.03 48.88 49.22 51.07 50.04 50.76 50.40 48.89 49.28 49.15
36.45 40.20 40.51 38.74 40.19 40.38 40.85 40.76 42.08 43.76 44.95 44.57 42.72 41.16 42.33 45.66 47.97 48.29 49.60 50.59 51.09 50.73 49.90 49.79 49.92 50.91 51.41 51.46 50.92 51.01 52.01 50.09 47.59 45.83 44.02 41.38 42.26 44.08 45.76 46.35 46.11 46.05 44.92 44.79 41.22 44.38 47.46 47.32 48.83 48.65 48.40 47.62 47.86 47.71
41.78 42.84 40.59 41.79 40.50 39.80 43.60 45.81 45.14 46.83 47.45 47.11 46.23 46.43 46.62 47.20 49.04 51.46 50.13 50.01 49.69 49.61 50.52 50.41 50.16 49.59 49.09 48.58 50.01 49.76 47.94 48.53 49.88 46.91 42.81 42.16 43.61 45.54 46.32 46.78 47.31 47.59 46.97 46.63 45.71 44.53 42.79 45.45 44.31 47.17 47.48 47.12 46.63 47.95
45.85 43.72 42.07 43.02 42.22 44.43 46.34 47.50 47.81 48.55 48.31 47.26 47.80 46.14 45.60 47.11 48.29 49.62 49.29 49.17 49.45 49.24 48.58 49.28 50.11 50.70 49.03 48.17 48.38 48.65 45.93 47.98 48.66 49.31 49.68 48.57 48.86 48.60 48.49 49.13 50.43 50.70 48.75 49.15 48.07 49.41 48.87 48.73 48.63 49.98 49.86 46.70 45.69 44.31
45.33 43.78 42.13 40.39 41.23 44.95 46.53 44.36 42.92 44.12 45.55 44.91 44.51 46.38 46.46 46.10 43.97 47.00 49.67 50.73 49.49 48.86 49.02 48.63 47.49 47.07 47.59 48.22 48.56 47.28 44.62 46.25 46.74 47.33 48.02 47.95 47.87 48.53 48.73 48.57 49.20 49.61 49.27 49.34 49.31 48.34 48.04 47.34 46.56 46.15 46.09 46.45 45.19 44.42
45.98 46.38 46.07 44.64 43.30 43.67 45.05 44.57 42.61 41.58 42.71 42.54 43.16 44.61 45.24 44.56 42.49 46.37 50.11 52.80 51.24 50.86 49.93 49.64 49.47 49.87 48.74 48.22 47.03 45.28 43.16 43.26 40.79 38.69 39.00 39.84 40.96 43.86 46.63 47.58 48.32 48.79 48.28 47.73 47.11 47.44 46.84 46.47 45.65 45.38 44.89 44.58 44.23 43.96

GFSWCAN_sfc_wetblb_042.txt.gz
Wetbulb
51.81 51.56 51.28 50.94 50.72 50.77 50.76 50.12 48.95 48.39 48.50 48.75 49.31 49.54 49.41 49.24 48.78 42.14 38.58 39.72 39.33 35.92 37.52 40.88 42.50 40.08 39.62 38.01 36.88 40.61 43.29 44.91 46.57 39.41 37.80 37.08 36.95 38.21 37.19 38.24 36.88 37.92 36.58 37.91 37.26 35.62 36.77 54.95 52.34 45.56 46.32 50.19 54.11 56.53
52.00 51.77 51.48 51.25 50.86 50.93 50.95 50.60 49.33 48.51 48.22 48.50 49.16 49.54 49.01 48.80 48.49 44.50 33.35 39.27 40.43 38.00 38.57 41.23 43.87 46.55 44.80 43.39 39.31 38.66 43.23 43.27 47.23 44.39 42.91 41.34 39.57 39.35 35.84 35.27 42.71 39.22 40.18 39.69 40.51 40.02 47.95 56.40 56.18 58.03 55.26 56.02 56.22 55.23
51.85 51.71 51.62 51.45 51.41 51.32 51.02 50.70 49.93 48.87 48.35 48.35 48.76 49.27 48.75 48.29 48.09 45.57 36.85 36.52 36.89 36.56 38.32 38.18 40.89 43.82 43.80 44.47 43.21 38.29 42.10 43.77 42.70 48.32 44.85 42.93 40.14 40.16 37.16 40.01 40.26 43.84 47.00 43.89 47.94 51.04 55.70 56.10 57.01 58.94 60.83 59.85 59.56 58.29
51.82 51.80 51.53 51.40 51.36 51.08 51.18 50.77 50.47 49.17 48.26 48.10 48.26 48.84 48.42 47.89 47.69 46.98 37.88 35.84 37.12 36.34 34.03 38.20 46.18 43.49 46.84 43.53 43.71 42.28 42.10 43.75 44.69 45.15 42.63 40.59 40.42 41.09 37.90 39.74 41.08 43.99 47.42 47.90 47.03 51.58 53.84 55.22 56.76 57.96 60.83 61.62 61.65 61.96
51.71 51.56 51.25 51.17 51.26 51.21 51.12 51.17 50.42 49.31 48.14 48.03 48.09 48.43 48.20 47.72 47.54 43.21 38.42 38.47 39.07 39.10 35.25 36.93 41.91 43.57 45.31 43.13 42.20 40.79 41.04 40.09 40.87 39.24 40.63 40.07 40.24 40.67 40.04 40.95 43.81 48.72 46.87 46.11 45.99 50.95 51.51 52.96 56.37 60.17 59.62 61.25 61.65 61.11
51.34 51.05 51.07 51.03 51.16 51.24 51.18 51.23 50.32 49.06 48.25 47.76 47.90 47.99 47.86 47.80 47.23 38.10 39.30 40.77 40.55 41.18 36.97 32.27 39.67 42.83 44.59 43.71 42.54 41.25 40.51 40.59 41.02 40.02 38.09 38.78 41.57 40.72 37.69 37.65 47.17 50.10 51.54 51.26 50.74 53.55 54.92 56.03 58.38 58.61 59.08 60.00 61.23 61.30
51.03 51.00 51.00 50.96 51.17 51.14 51.24 50.99 50.25 48.84 48.11 47.87 48.01 48.20 48.05 47.86 39.74 34.16 38.42 42.26 43.88 40.13 38.30 35.04 36.60 42.74 46.11 42.70 42.05 40.84 38.63 38.74 37.98 36.78 36.66 36.62 38.01 39.91 38.74 37.60 46.07 50.66 52.24 53.50 54.29 55.45 53.87 56.86 55.00 57.97 60.00 60.94 59.37 61.70
50.62 50.49 50.51 50.52 50.61 50.92 50.78 50.33 49.71 48.87 47.85 47.72 48.02 48.70 48.07 47.86 43.76 38.35 41.01 45.92 43.59 37.97 39.33 34.25 36.38 40.27 45.29 39.69 39.63 39.24 37.88 37.06 37.49 37.75 38.34 37.80 37.21 37.08 33.74 40.38 43.03 46.02 52.06 52.15 55.47 55.29 54.03 57.14 57.09 57.17 58.45 58.19 57.58 57.41
50.11 50.02 50.01 49.99 50.20 50.42 50.39 49.73 49.15 48.35 47.89 47.83 48.19 47.43 40.42 38.74 37.26 41.17 50.97 48.17 42.06 41.99 36.89 36.00 33.89 34.86 44.54 41.92 41.67 42.38 39.23 35.44 38.33 37.02 36.85 38.76 35.35 33.99 36.31 39.58 42.77 45.46 49.13 50.45 53.74 56.78 55.87 54.86 55.05 55.62 56.38 56.03 56.13 56.70
49.54 49.56 49.70 49.77 49.66 50.17 49.87 48.87 48.68 47.99 47.73 46.99 39.75 37.86 37.07 40.16 49.70 49.80 42.36 39.74 40.32 39.13 37.52 34.77 36.80 37.17 41.66 41.12 40.89 39.40 39.93 38.83 36.02 38.59 39.12 36.72 35.56 39.47 44.43 45.23 45.60 47.05 46.99 51.09 51.00 49.49 49.26 48.80 50.17 51.27 52.50 54.47 54.20 54.33
49.44 49.52 49.55 49.71 49.71 49.96 49.26 48.67 48.43 46.76 43.31 36.60 34.67 35.91 42.11 45.95 42.09 39.43 36.05 35.62 35.94 34.84 36.63 36.92 36.98 37.18 42.50 39.43 38.96 39.57 37.05 38.63 35.19 37.62 37.85 34.91 38.05 42.78 45.83 46.17 46.88 47.69 49.13 49.19 49.53 49.33 49.38 49.50 49.62 50.71 51.97 52.92 53.23 54.44
49.44 49.61 49.56 49.69 49.70 49.89 49.03 48.83 48.26 40.91 36.43 39.03 38.38 40.09 39.25 39.65 36.94 34.44 33.29 35.42 35.30 35.06 38.39 37.48 37.70 37.55 42.29 44.64 40.61 40.67 37.86 39.15 34.93 41.66 39.30 35.79 42.91 44.12 46.11 47.66 48.16 47.73 48.29 48.61 49.51 49.45 50.14 51.31 51.42 51.45 52.12 52.97 53.36 53.83
48.47 49.27 49.56 49.53 49.84 49.73 49.24 48.82 47.26 45.14 41.52 37.90 37.86 35.67 37.55 36.20 33.57 33.14 30.74 33.10 33.40 37.71 40.33 40.39 38.66 43.27 44.46 45.51 42.85 40.63 36.88 35.46 42.84 38.65 38.17 40.99 46.95 47.32 46.98 48.00 48.87 49.08 49.11 49.03 48.97 49.43 49.56 49.88 51.08 51.83 51.60 53.11 53.57 53.69
47.11 48.96 49.49 49.56 49.38 49.34 49.03 48.69 48.20 45.55 36.74 38.26 36.49 28.71 32.26 30.66 32.79 33.83 34.16 34.57 38.05 40.25 43.49 43.23 41.74 41.00 43.13 43.19 43.30 40.09 40.20 41.33 37.68 35.76 38.76 45.68 48.47 49.65 47.66 47.91 47.00 46.83 47.78 47.65 48.23 48.75 48.71 48.94 48.90 50.17 51.22 51.47 51.66 52.15
45.27 47.35 49.18 49.18 49.42 48.87 48.71 48.92 47.70 40.63 39.64 37.95 39.85 32.72 33.13 36.76 35.89 36.55 38.08 38.41 41.56 44.06 44.36 43.68 42.85 41.64 40.89 40.87 40.74 40.52 38.53 37.06 38.05 37.76 41.92 45.59 47.52 46.28 44.63 45.32 45.22 45.41 46.11 46.48 47.21 47.66 48.11 48.57 48.55 48.94 50.13 50.54 50.60 51.22
45.41 47.99 47.48 49.01 48.76 48.74 48.57 47.25 41.81 39.75 39.89 37.26 37.00 34.16 38.77 35.35 35.86 37.44 38.47 39.21 42.67 44.28 45.67 43.61 39.96 37.68 36.84 37.03 37.50 37.56 37.43 34.86 37.44 41.12 43.63 44.14 43.61 43.53 43.69 44.62 45.55 46.19 47.80 48.55 48.30 48.64 47.68 47.52 47.65 48.34 49.58 50.18 50.41 50.94
46.86 44.58 48.43 48.41 48.62 48.27 46.17 39.71 38.80 37.40 37.60 37.01 35.67 38.54 37.12 36.43 36.65 38.29 40.72 41.08 43.40 42.50 39.75 40.71 36.40 34.88 38.06 35.78 36.73 38.99 37.32 38.78 41.38 42.91 43.39 42.83 43.00 43.55 43.92 44.74 47.00 50.27 51.49 51.92 50.40 50.31 49.58 49.70 50.66 51.43 51.42 51.12 49.76 50.61
45.09 47.44 48.51 48.31 45.40 43.91 40.56 39.77 38.77 37.83 35.21 36.23 35.84 39.44 41.90 42.62 43.64 41.07 42.42 43.50 42.27 42.45 41.04 39.50 38.71 35.13 34.58 35.80 36.59 39.51 40.93 42.19 42.48 42.38 42.50 42.94 43.80 44.66 46.56 48.52 50.96 52.35 52.96 52.14 51.32 51.03 52.28 52.60 51.75 51.53 49.97 51.43 50.42 52.89
45.99 46.65 48.10 47.47 43.19 38.29 35.74 36.91 39.66 36.52 37.38 37.02 38.43 38.48 41.52 46.01 44.46 43.78 41.61 41.48 41.20 41.20 39.61 37.93 36.90 35.35 37.77 38.56 39.36 40.42 41.40 41.54 41.70 42.13 42.72 43.80 44.68 46.80 50.61 51.73 52.26 52.31 52.30 52.33 52.35 52.43 52.59 52.70 52.41 52.77 52.77 53.35 51.43 52.01
48.29 48.07 47.74 47.11 45.18 40.83 40.22 38.95 41.09 37.32 36.06 39.27 40.70 41.94 43.34 43.75 44.23 42.01 39.25 38.85 37.87 38.18 37.71 37.85 38.23 39.15 39.54 41.08 41.90 42.39 42.56 43.04 44.58 44.30 42.68 45.85 47.97 50.36 50.89 50.96 51.00 51.68 51.32 51.81 52.00 48.64 51.70 51.81 51.99 51.65 51.63 51.54 51.09 50.56
44.87 45.23 46.10 43.01 41.24 40.19 38.75 38.20 36.52 37.04 37.94 38.48 41.16 40.93 40.94 39.65 37.43 36.84 36.85 37.93 37.00 35.31 37.61 39.64 40.74 41.77 42.39 43.66 44.42 44.54 45.45 46.04 46.33 46.76 46.96 47.00 49.09 49.91 50.78 50.69 50.92 51.26 50.80 50.98 50.69 50.16 49.48 50.24 50.98 51.78 51.72 51.37 51.37 50.77
42.12 46.08 41.99 43.30 40.06 41.60 38.69 39.41 37.75 38.53 40.66 41.88 42.38 44.19 41.48 39.49 37.30 35.55 36.23 35.32 35.76 38.10 38.60 39.80 41.13 41.49 42.09 42.47 43.74 45.77 47.92 49.02 49.02 49.03 47.05 47.61 48.26 49.46 49.13 49.91 50.67 50.42 50.26 50.46 50.62 50.24 50.06 50.72 51.51 51.23 51.03 50.86 50.31 51.55
45.87 44.13 42.20 41.51 37.47 34.31 34.59 41.74 38.08 40.76 37.55 40.36 40.91 39.10 37.42 37.03 38.15 36.70 34.00 34.75 35.81 38.00 39.87 40.19 41.47 42.96 44.53 46.30 47.99 48.26 49.25 49.11 49.37 49.69 50.02 50.00 50.49 50.16 49.73 50.27 50.78 50.45 49.63 49.76 50.09 49.82 49.68 46.67 48.48 49.21 49.52 50.05 51.12 51.01
44.77 38.49 36.98 36.71 36.59 32.68 39.18 38.77 40.11 37.08 36.39 35.43 34.99 32.25 32.39 33.49 36.05 34.28 32.60 34.04 37.46 40.57 42.58 44.45 46.78 46.85 48.17 48.19 47.88 47.88 49.04 50.80 49.98 48.46 47.92 49.87 48.92 48.48 49.90 49.92 49.59 49.01 48.86 49.44 49.32 49.29 49.13 49.23 46.59 48.75 49.46 49.19 49.27 48.99
31.92 30.75 32.84 29.38 35.36 36.91 35.87 36.13 32.38 31.52 31.08 32.71 31.86 31.39 33.06 36.01 35.15 35.01 35.30 38.82 41.08 43.52 44.96 46.67 46.96 46.91 46.60 46.94 47.65 48.55 50.71 50.78 48.26 46.87 47.47 48.35 48.32 47.18 46.33 46.39 46.64 47.00 47.49 47.65 47.15 47.53 47.52 48.17 48.47 48.62 48.30 48.38 48.51 46.86
24.67 33.50 30.02 33.31 32.11 33.69 32.67 30.63 30.13 31.19 32.64 32.07 32.99 36.65 39.26 37.69 35.41 34.17 38.28 41.12 42.79 44.49 46.19 46.87 46.94 47.01 47.56 48.14 47.85 49.10 49.31 50.95 49.94 47.54 48.14 48.17 47.07 46.11 45.49 45.45 45.86 47.52 49.53 49.70 50.01 49.82 49.43 49.33 49.28 49.56 49.35 49.02 44.39 47.88
30.57 30.85 35.88 39.35 35.69 35.42 35.30 36.39 36.28 34.20 34.34 34.68 37.53 38.55 38.34 35.21 34.93 38.33 42.61 44.51 45.25 47.83 49.80 49.37 48.84 48.72 48.75 49.55 50.54 50.85 50.87 51.03 50.29 50.12 50.41 50.40 50.11 48.78 47.73 46.95 47.05 48.89 50.79 51.26 51.14 51.62 51.02 51.15 50.76 50.44 50.11 50.43 50.77 50.67
36.24 36.71 34.23 37.50 34.84 35.82 36.81 37.64 36.61 36.49 38.04 40.60 41.44 39.00 38.00 37.85 38.44 42.95 44.91 47.50 49.07 51.01 50.76 51.32 51.33 51.38 50.35 50.40 50.47 50.23 50.31 50.71 49.83 49.69 49.18 48.78 49.08 50.93 51.42 51.42 50.17 40.83 45.38 48.63 50.40 50.50 50.28 52.25 50.30 50.48 50.52 50.79 50.56 50.31
36.64 39.26 38.50 37.26 38.63 38.67 38.74 39.25 40.79 41.83 43.29 43.34 41.51 41.08 42.21 44.88 47.18 47.25 48.15 50.20 51.55 51.26 49.64 49.60 50.06 51.21 50.86 49.99 49.71 49.59 49.28 49.01 48.43 47.34 46.76 45.99 44.27 47.40 47.38 46.74 46.32 46.11 45.59 46.59 40.57 42.43 48.93 49.56 49.56 50.45 50.17 48.99 48.37 48.52
39.67 41.41 39.18 40.42 39.41 38.97 42.39 44.31 43.66 46.57 47.12 47.04 47.47 46.15 46.14 46.91 48.77 50.49 49.98 50.05 49.57 49.15 49.74 49.89 49.80 49.35 48.55 48.36 48.13 48.52 47.58 48.49 49.49 48.98 47.08 46.33 45.30 46.75 47.06 47.81 47.78 47.56 47.15 47.18 47.30 46.81 42.04 47.14 46.15 49.93 48.94 48.31 47.58 47.48
43.56 41.93 41.01 41.82 42.43 45.26 47.07 48.15 48.01 47.63 47.20 47.24 48.03 45.02 44.70 45.86 47.58 49.16 49.75 49.90 49.96 49.32 48.72 48.26 48.61 49.13 48.16 47.62 47.26 47.25 46.76 46.76 47.09 49.07 50.48 48.66 45.91 46.18 46.47 47.02 47.16 47.22 47.66 47.92 48.31 48.24 48.26 48.63 48.92 48.94 48.85 47.79 46.83 45.26
42.68 41.42 40.73 39.06 40.26 44.35 46.56 45.31 44.65 44.81 45.68 45.51 44.72 45.15 45.55 45.02 44.19 46.94 49.69 49.92 48.33 48.20 47.58 48.06 47.56 47.68 48.83 48.79 47.83 48.26 43.58 47.57 47.62 47.50 48.37 47.96 47.98 48.13 48.79 48.75 48.55 48.54 49.11 49.07 48.44 48.73 49.50 49.16 48.79 47.86 47.34 46.86 46.32 45.74
43.92 43.62 42.99 42.18 41.46 41.89 43.52 42.27 41.18 42.11 43.00 42.77 43.08 44.25 44.16 43.89 42.74 45.80 48.48 50.35 49.65 49.53 48.69 48.57 48.76 49.28 49.07 47.85 47.09 46.28 43.52 44.93 40.52 38.17 40.00 40.67 41.15 43.55 47.13 47.84 48.97 49.75 49.36 48.50 47.97 48.18 47.75 47.69 47.01 46.98 46.37 46.23 46.05 46.05

GFSWCAN_sfc_wetblb_048.txt.gz
Wetbulb
53.17 52.75 51.95 51.50 51.20 50.87 50.67 50.46 49.80 48.43 48.08 48.42 49.14 49.76 49.61 49.00 48.73 49.00 50.07 49.93 48.64 48.25 49.06 49.32 48.83 48.44 49.69 50.07 48.49 51.24 53.18 54.66 54.03 50.96 50.12 50.77 49.30 51.38 50.61 51.55 51.32 51.55 50.36 50.24 52.43 49.58 47.56 61.79 59.66 55.52 61.67 64.16 63.96 63.72
53.28 52.72 52.06 51.72 51.19 51.26 50.82 50.72 50.45 49.07 48.15 48.05 48.62 49.26 49.23 48.75 48.44 48.37 48.04 49.71 49.86 47.07 49.39 52.13 51.58 51.75 50.58 50.09 48.19 51.92 51.19 50.93 50.60 51.86 53.36 53.06 51.45 52.98 51.74 47.09 54.98 50.10 54.95 52.60 53.20 52.85 61.32 63.64 63.12 64.83 65.70 64.51 65.02 64.89
53.14 52.71 51.99 51.59 51.06 51.37 50.85 50.72 50.58 49.91 48.52 47.75 48.17 48.82 48.91 48.58 48.07 47.66 47.64 49.02 50.05 48.47 49.70 50.93 52.06 54.67 56.10 54.77 54.79 49.84 52.84 51.27 49.94 53.85 52.13 53.28 50.18 53.62 49.76 51.07 52.74 56.10 58.16 56.27 54.58 58.51 60.84 62.95 64.26 65.68 66.77 66.10 66.15 66.09
53.12 52.72 51.76 51.32 51.09 51.32 51.09 50.57 50.50 50.49 48.98 48.00 47.89 48.36 48.61 48.35 48.01 47.32 49.20 51.20 50.66 49.69 45.62 49.98 55.62 53.52 55.93 56.06 54.47 53.70 52.58 53.97 51.75 51.36 51.59 51.46 51.50 53.82 52.63 52.20 52.26 56.18 57.88 55.75 55.36 59.76 61.00 62.75 64.30 65.52 66.71 66.76 66.05 66.00
52.90 52.33 51.45 51.21 51.23 51.18 50.65 50.46 50.49 50.45 49.45 48.24 47.70 47.87 48.19 48.04 47.98 48.25 52.11 53.13 53.30 48.79 46.38 48.73 52.31 54.50 56.57 55.61 53.04 53.47 53.28 52.53 50.79 47.65 49.41 49.83 52.18 52.37 55.27 53.79 52.18 57.85 56.31 53.65 54.71 60.79 61.61 62.64 64.74 66.34 66.16 66.10 66.99 66.49
52.57 51.47 51.20 51.30 51.11 51.04 50.52 50.73 50.66 50.67 49.68 48.47 47.53 47.67 47.99 48.16 47.95 48.81 48.92 52.41 54.42 52.31 48.30 45.78 52.30 53.04 55.54 53.64 52.69 53.18 55.19 54.46 52.89 49.27 48.25 52.79 52.52 51.56 50.41 50.39 56.70 58.38 60.06 60.40 59.51 62.57 62.69 64.04 64.68 65.57 65.97 66.38 66.73 66.68
51.17 51.26 51.27 51.24 51.12 51.03 51.10 51.20 51.11 50.73 49.61 48.45 47.65 47.67 47.98 48.26 48.28 45.69 46.08 49.54 48.44 52.40 48.76 46.08 48.07 54.04 55.66 54.26 54.46 54.62 54.36 54.16 51.41 50.50 47.38 48.91 52.22 51.88 50.92 47.93 54.24 58.78 60.00 60.74 62.58 62.65 60.63 62.09 61.91 64.14 65.14 65.36 63.24 65.30
50.39 50.09 49.75 50.52 51.16 51.02 51.00 51.01 50.97 50.47 49.10 48.21 47.54 47.86 48.31 47.74 46.83 47.42 52.30 49.37 48.14 47.89 49.54 45.12 47.84 50.31 55.75 51.62 50.71 55.86 52.92 53.08 50.81 50.15 50.41 47.22 49.34 50.48 46.08 51.32 54.55 56.13 56.98 57.55 60.26 62.52 61.60 62.94 63.05 62.88 63.91 63.59 62.87 62.96
50.27 50.32 49.79 49.50 50.16 50.95 50.97 50.83 50.75 49.86 48.80 47.63 47.51 47.42 47.89 47.62 48.45 50.50 49.77 50.19 50.80 49.65 46.80 47.70 44.88 46.03 55.27 53.17 54.59 53.20 53.69 47.97 52.22 47.56 47.79 49.08 45.86 43.63 47.90 50.05 52.59 55.25 55.31 56.27 57.44 59.40 60.61 61.37 61.10 61.18 60.52 59.53 59.03 59.01
49.90 49.76 49.74 49.72 50.39 50.45 50.63 50.54 49.99 49.23 47.80 46.72 46.23 46.43 44.25 49.65 47.94 49.97 50.50 48.85 49.25 49.54 48.42 45.14 50.89 47.86 53.24 53.24 51.84 52.10 52.54 48.83 46.22 48.48 51.89 46.26 45.61 51.21 52.11 53.91 55.44 56.01 57.23 57.26 55.49 54.95 57.70 59.81 60.28 60.12 59.60 59.94 59.78 59.69
49.78 49.85 50.18 50.45 50.35 50.39 50.35 49.97 49.15 47.42 45.19 45.24 44.02 47.07 49.83 46.81 51.42 49.44 45.03 43.92 46.11 43.47 46.54 47.21 47.29 47.05 53.98 49.23 49.00 53.23 49.90 50.44 44.55 48.22 46.40 46.07 45.36 50.81 53.92 54.56 56.12 56.80 57.56 58.24 58.94 59.40 60.11 60.08 59.50 59.74 59.33 59.56 60.06 59.88
49.82 49.90 50.08 50.03 50.01 50.06 49.92 49.57 48.09 46.66 46.79 44.92 47.71 47.87 50.30 48.67 46.30 42.14 41.77 44.78 43.27 42.81 47.07 46.72 48.12 47.56 51.79 55.59 51.30 51.27 47.35 50.02 42.37 51.30 47.07 43.62 50.12 53.80 54.47 54.66 55.54 56.27 55.92 55.97 56.57 56.55 56.88 57.12 57.49 57.93 58.75 59.14 59.28 60.19
49.31 49.54 49.44 49.62 49.78 49.94 49.65 49.00 47.13 45.98 46.21 48.41 46.68 45.33 45.54 44.22 37.03 36.45 35.68 40.48 42.69 46.36 49.50 50.42 47.90 48.82 51.37 53.91 51.08 49.75 44.25 44.53 53.13 46.14 45.26 49.40 52.32 53.49 54.89 55.94 55.10 55.65 55.34 55.43 55.22 55.84 56.04 56.17 56.81 57.04 57.24 58.11 58.52 58.57
48.64 48.67 48.88 49.31 49.71 49.80 49.23 48.23 46.87 46.31 46.96 45.31 42.67 34.73 39.35 37.69 39.97 41.71 43.67 46.47 48.27 51.39 51.70 52.50 50.10 48.71 52.50 49.35 50.02 43.41 48.83 49.03 42.58 41.56 43.52 50.25 53.21 54.43 54.31 52.98 52.60 53.30 54.61 55.37 55.97 56.58 56.60 56.83 57.16 57.61 57.70 58.06 57.71 57.31
47.67 48.47 48.78 49.08 49.57 49.57 49.02 47.97 47.43 48.18 46.76 42.26 43.93 36.79 39.41 45.42 47.03 48.75 49.90 49.13 50.05 52.56 51.64 50.34 51.15 51.95 48.93 46.38 48.62 46.70 42.83 40.66 44.16 45.28 50.47 51.47 53.14 52.69 51.87 53.82 53.85 54.01 54.89 55.75 56.79 56.67 56.51 56.54 56.46 56.76 57.92 58.53 58.39 57.94
47.42 47.65 46.40 49.15 49.69 48.88 48.56 48.20 46.30 47.55 46.61 44.71 43.76 42.19 46.24 45.15 45.90 47.35 48.23 48.77 53.37 52.84 53.44 53.20 47.41 45.44 43.99 45.32 42.63 41.48 39.72 39.39 45.77 50.56 53.76 54.80 54.42 54.78 54.05 54.42 54.91 55.43 55.61 56.04 56.12 56.38 57.14 57.14 56.96 57.39 57.93 57.58 57.41 57.21
46.55 45.31 47.72 49.37 48.76 48.22 48.13 45.90 43.50 39.98 43.57 42.43 43.37 47.37 47.58 48.49 48.90 50.56 52.03 52.39 54.95 51.78 48.44 49.33 42.75 42.30 48.77 44.20 42.22 47.01 45.42 48.00 51.10 52.93 54.13 54.47 53.30 53.56 54.49 54.88 54.99 53.51 53.20 54.45 57.13 56.24 55.97 56.62 57.08 56.55 54.77 55.94 55.60 56.52
43.01 49.48 48.86 48.23 47.65 46.67 45.97 44.95 41.61 41.48 39.75 44.42 43.53 45.86 48.72 50.42 49.36 51.71 53.23 54.23 51.93 52.08 51.68 47.04 51.30 45.03 43.87 41.41 46.02 49.88 51.55 52.91 53.68 53.62 53.97 54.08 54.88 54.95 54.99 52.77 54.17 53.57 53.92 54.11 55.03 56.18 56.99 56.14 55.80 55.43 55.78 56.63 56.24 55.71
47.75 47.34 47.86 47.72 46.88 43.88 41.25 41.83 44.93 40.35 42.95 47.24 47.43 49.32 50.87 51.57 53.55 52.99 52.40 53.55 52.88 54.03 51.85 50.69 46.07 45.56 47.50 51.10 50.94 51.94 53.00 53.47 52.87 53.08 53.28 55.65 55.09 54.49 53.95 53.86 54.65 55.48 55.70 55.94 56.00 55.79 55.93 55.04 54.71 54.73 54.63 54.78 53.76 53.80
47.72 47.45 47.21 46.24 46.72 45.17 40.50 42.20 46.75 43.12 43.03 47.12 49.83 49.26 50.77 50.78 48.31 49.67 49.36 52.77 51.43 50.72 48.49 47.53 48.91 51.68 51.79 52.58 54.00 53.38 53.57 53.34 51.94 50.56 52.13 54.15 53.89 53.01 53.57 52.09 53.09 55.10 55.28 55.86 55.56 49.92 54.21 54.19 54.59 54.51 54.12 53.94 53.44 52.46
46.68 46.16 46.56 47.83 49.07 48.08 45.91 45.35 43.52 46.08 48.38 47.91 49.39 48.74 46.75 50.52 47.98 46.63 49.49 52.08 49.11 50.07 48.77 52.25 53.00 52.90 54.48 54.56 55.32 54.92 54.85 53.92 50.46 49.81 49.46 49.87 50.89 51.10 51.22 52.21 52.81 52.90 53.64 54.08 52.86 52.21 51.20 52.49 52.99 53.20 53.46 52.98 53.51 53.75
47.06 45.94 47.71 47.98 46.54 46.26 46.03 47.79 46.48 49.58 48.01 48.71 48.55 49.45 47.50 45.90 45.75 46.82 49.95 48.23 49.18 51.30 52.30 52.44 53.32 53.91 53.26 52.74 53.88 53.85 53.74 52.93 51.94 52.19 47.94 48.76 49.19 51.14 51.52 52.94 53.29 52.94 52.75 51.99 51.73 51.79 53.64 53.09 53.69 52.81 52.60 52.22 51.69 52.62
47.62 48.32 47.57 46.32 42.74 41.47 41.72 49.94 44.58 46.72 43.80 45.31 48.53 44.98 46.13 47.38 48.71 50.49 46.53 49.76 50.23 52.11 53.09 52.95 52.52 52.99 51.96 52.62 52.74 52.84 53.54 53.33 51.88 51.16 51.55 51.31 52.86 53.17 53.84 54.49 54.37 51.48 51.40 51.38 52.72 52.89 52.81 48.36 52.05 51.83 52.37 52.99 55.20 55.20
45.45 43.47 41.23 40.67 42.52 40.40 46.72 44.13 48.33 46.40 45.58 43.52 42.65 41.44 44.11 46.64 48.86 46.92 44.09 47.42 49.87 51.54 50.68 51.32 52.41 51.44 52.87 50.77 51.04 53.28 51.65 51.34 51.73 51.67 52.54 52.79 52.79 54.41 55.64 55.36 55.49 55.66 54.10 54.94 54.11 54.79 54.80 55.10 50.06 53.85 55.30 54.79 54.40 53.68
38.03 38.25 39.67 34.24 43.85 41.16 39.87 40.72 41.44 43.22 39.46 41.89 40.13 41.16 44.28 47.95 43.71 41.43 40.49 47.04 49.71 49.82 50.90 52.14 52.14 51.69 48.83 50.65 50.51 50.84 53.34 54.62 53.00 51.72 53.53 55.17 54.29 54.15 53.73 54.55 54.82 55.55 55.32 54.41 53.59 53.30 54.21 55.64 54.58 53.92 53.41 53.74 53.29 53.15
34.45 40.71 37.30 41.51 43.20 41.13 42.26 37.63 38.37 39.16 41.42 39.81 41.02 45.99 46.83 44.25 38.89 37.49 45.24 48.92 50.36 50.43 51.43 51.26 50.18 49.24 50.00 51.80 51.62 53.46 54.80 56.68 56.40 53.83 54.66 55.75 53.58 52.89 52.97 52.20 51.96 54.59 58.06 57.79 56.78 55.39 54.93 55.36 54.21 53.58 53.60 51.96 45.62 52.92
34.62 38.00 43.22 47.64 45.92 44.72 44.04 45.32 45.81 43.13 38.72 38.44 43.24 41.40 41.85 36.98 37.50 43.84 49.61 51.73 50.90 52.89 53.99 53.53 51.04 50.42 51.13 51.69 54.74 56.74 56.84 57.38 56.45 55.21 56.60 57.36 57.37 55.96 56.52 53.80 52.57 54.85 58.75 58.58 58.53 57.19 55.61 55.62 54.47 53.44 53.23 53.61 54.68 55.65
42.47 41.29 37.59 40.54 42.36 45.48 39.35 41.85 39.96 39.16 42.50 46.96 45.78 40.79 39.30 39.96 43.12 48.78 49.75 53.30 53.70 54.37 52.14 51.88 52.61 53.33 53.25 55.40 56.66 56.53 56.78 57.54 57.77 57.84 57.77 57.76 58.38 58.98 59.01 60.02 59.33 41.13 56.31 55.95 55.73 58.03 57.54 56.36 55.81 55.03 54.69 53.92 54.18 55.38
40.76 43.94 42.16 38.83 39.38 40.74 42.21 41.89 42.68 45.85 47.89 47.54 43.10 41.82 43.18 46.91 48.77 50.05 52.44 54.32 53.98 52.68 51.46 51.23 51.77 54.74 54.01 54.49 56.82 57.62 57.91 56.67 54.25 51.90 51.50 51.93 52.74 54.46 57.49 57.51 56.44 56.73 57.28 55.93 38.66 46.81 54.86 55.74 54.53 55.27 54.19 54.74 56.18 57.12
41.10 43.66 39.86 39.46 38.58 38.69 43.57 46.29 45.70 48.50 48.60 47.90 47.91 47.70 47.66 49.91 52.56 54.10 54.33 53.70 51.88 51.51 52.13 52.72 53.31 52.77 52.95 53.97 54.18 54.97 56.79 57.18 56.79 54.26 51.91 51.51 52.46 55.11 55.42 55.33 55.48 56.15 57.54 57.28 56.57 55.90 43.61 51.93 49.93 55.12 54.32 54.80 55.34 54.96
43.65 41.67 40.24 41.11 41.42 45.38 47.06 49.00 48.82 48.47 48.35 47.75 48.74 46.68 46.47 47.83 49.70 52.67 54.68 54.98 53.56 53.80 53.53 53.39 55.07 56.20 55.47 54.73 54.79 54.25 54.12 56.78 57.04 57.27 57.40 57.17 57.09 56.25 56.44 56.80 57.28 57.75 57.37 56.44 55.79 55.82 55.36 54.27 55.44 54.75 54.14 53.69 53.23 51.50
44.81 43.08 42.25 41.37 43.13 47.27 48.80 47.34 46.90 46.84 47.58 47.29 47.45 48.96 48.80 48.31 46.66 50.90 54.28 55.14 54.67 54.41 52.32 54.13 55.57 56.01 57.26 58.06 57.51 57.30 44.81 57.06 58.23 58.32 56.61 57.23 57.28 57.69 57.47 57.59 57.49 57.94 58.02 57.56 57.43 56.09 55.67 54.18 53.96 53.33 52.96 51.99 51.94 51.65
46.80 47.08 48.20 47.79 46.84 46.45 49.58 49.23 47.63 47.32 48.36 48.12 48.81 50.89 50.92 49.95 48.45 52.96 56.73 57.29 56.29 55.82 55.94 56.64 57.61 57.77 56.78 56.65 56.56 56.72 49.62 56.90 47.43 38.12 39.92 40.02 40.77 48.81 57.30 57.94 58.00 58.51 56.85 57.04 55.88 55.27 53.73 52.26 52.25 51.74 52.03 51.57 51.23 51.01